Forum Crazy Orc - Centre de statistiques

Statistiques générales

Total des membres:
1 007
Total des messages:
96 870
Total des sujets:
4 073
Total des catégories:
4
Membres en ligne:
54
Connexions simultanées:
808 - 21 janvier 2020 à 20:55:59
En ligne aujourd'hui:
63
Total des pages vues:
33 751 992
Moyenne des inscriptions par jour:
0,25
Moyenne des messages par jour:
24,47
Moyenne des sujets par jour:
1,09
Total des sections:
40
Dernier membre:
yumiii
Moyenne d'utilisateurs connectés par jour:
48,33
Ratio hommes/femmes:
7.2:1
Pages vues en moyenne par jour:
5 869,91

Top lanceurs de sujets

nunch
600
Morithil
315
ManuDevil
288
GroumpH
246
Scratchy
132
MAO
110
LeDupontesque
105
jules
99
snake
92
CCCP
85

Temps de connexion cumulé

Mandy
133j 19h 59m
GroumpH
112j 9h 9m
CCCP
86j 17h 18m
Nukeflow
73j 8h 19m
ManuDevil
67j 11h 22m
Felipe
61j 12h 19m
dao
56j 17h 58m
nunch
49j 51m
Rh
42j 23h 32m
Patate
42j 5h 49m

Historique du forum (basé sur l'heure interne du forum)

Résumé annuel Nouveaux sujets Nouveaux messages Nouveaux membres Connexions simultanées Pages vues
* 2022 174 1 121 95 261 3 498 259
Décembre 2022 0 4 0 124 25 848
Novembre 2022 16 103 6 261 350 274
Octobre 2022 11 120 17 208 290 108
Septembre 2022 17 115 6 258 357 415
Août 2022 15 108 9 147 318 817
2022-08-01 0 0 0 116 6 843
2022-08-02 0 0 0 111 9 274
2022-08-03 0 0 0 112 7 595
2022-08-04 1 5 0 109 6 193
2022-08-05 0 0 0 95 6 361
2022-08-06 0 1 0 87 5 804
2022-08-07 0 3 0 83 11 749
2022-08-08 0 0 0 88 15 704
2022-08-09 0 1 0 80 9 660
2022-08-10 0 0 0 86 9 352
2022-08-11 0 4 0 85 8 513
2022-08-12 0 0 1 79 8 042
2022-08-13 0 0 0 80 6 219
2022-08-14 1 2 1 78 5 982
2022-08-15 0 0 0 72 8 920
2022-08-16 0 1 0 90 5 805
2022-08-17 0 2 0 94 6 057
2022-08-18 0 10 0 81 8 447
2022-08-19 0 3 0 82 11 675
2022-08-20 0 0 0 98 10 849
2022-08-21 8 9 1 103 11 267
2022-08-22 0 4 1 147 11 819
2022-08-23 0 8 1 98 16 038
2022-08-24 1 11 1 109 12 745
2022-08-25 0 8 1 118 12 740
2022-08-26 0 3 0 114 13 536
2022-08-27 2 11 1 125 16 331
2022-08-28 1 6 1 113 16 216
2022-08-29 1 4 0 116 15 342
2022-08-30 0 8 0 113 12 550
2022-08-31 0 4 0 107 11 189
Juillet 2022 13 69 4 208 308 045
Juin 2022 14 76 4 62 333 112
Mai 2022 16 118 8 91 339 244
2022-05-01 0 6 0 50 6 710
2022-05-02 0 2 2 44 5 920
2022-05-03 0 2 0 44 6 901
2022-05-04 0 6 0 48 11 189
2022-05-05 0 1 0 47 12 307
2022-05-06 0 1 0 60 23 346
2022-05-07 0 6 1 61 29 361
2022-05-08 1 5 1 91 19 240
2022-05-09 1 12 0 72 14 879
2022-05-10 0 2 0 61 15 852
2022-05-11 0 0 0 59 11 814
2022-05-12 2 14 1 43 8 964
2022-05-13 0 5 0 58 6 886
2022-05-14 0 2 0 32 8 302
2022-05-15 0 0 0 39 10 632
2022-05-16 7 9 0 59 11 094
2022-05-17 1 6 1 40 9 245
2022-05-18 0 3 0 43 9 669
2022-05-19 0 3 0 36 10 724
2022-05-20 0 4 0 47 13 804
2022-05-21 0 5 0 46 8 820
2022-05-22 1 2 0 45 8 742
2022-05-23 2 2 0 45 9 308
2022-05-24 0 4 1 52 9 886
2022-05-25 0 2 0 48 7 740
2022-05-26 0 3 0 47 8 972
2022-05-27 0 2 0 49 7 978
2022-05-28 1 3 1 47 7 507
2022-05-29 0 2 0 43 5 171
2022-05-30 0 3 0 49 8 361
2022-05-31 0 1 0 49 9 920
Avril 2022 18 133 12 61 254 691
2022-04-01 0 6 0 49 15 444
2022-04-02 0 2 1 49 8 967
2022-04-03 4 5 0 38 8 148
2022-04-04 1 9 1 43 10 158
2022-04-05 0 3 1 41 13 979
2022-04-06 0 8 0 36 9 247
2022-04-07 1 5 0 43 12 333
2022-04-08 0 4 0 43 10 696
2022-04-09 1 5 2 41 14 859
2022-04-10 1 7 3 41 17 217
2022-04-11 2 5 0 46 14 030
2022-04-12 0 1 0 34 9 483
2022-04-13 2 4 0 35 6 925
2022-04-14 0 7 0 48 6 203
2022-04-15 0 7 0 49 6 464
2022-04-16 0 5 0 35 4 327
2022-04-17 0 0 0 36 4 954
2022-04-18 0 1 0 40 4 048
2022-04-19 0 9 0 44 5 344
2022-04-20 0 0 0 48 4 153
2022-04-21 0 3 0 55 8 132
2022-04-22 2 7 1 52 9 959
2022-04-23 0 3 0 49 7 655
2022-04-24 1 1 1 61 6 931
2022-04-25 2 6 0 44 7 260
2022-04-26 0 2 0 44 5 849
2022-04-27 0 2 0 55 5 585
2022-04-28 0 5 1 47 6 009
2022-04-29 1 9 0 52 5 398
2022-04-30 0 2 1 43 4 934
Mars 2022 15 123 8 65 281 935
2022-03-01 0 3 0 48 8 993
2022-03-02 1 8 1 45 10 064
2022-03-03 1 2 1 50 8 853
2022-03-04 0 4 0 44 7 834
2022-03-05 0 2 0 41 7 119
2022-03-06 0 0 0 37 10 411
2022-03-07 0 3 0 54 12 871
2022-03-08 0 9 0 36 8 020
2022-03-09 0 4 0 33 8 530
2022-03-10 2 5 0 44 12 186
2022-03-11 0 3 0 42 15 489
2022-03-12 0 6 0 38 11 948
2022-03-13 3 3 1 37 8 518
2022-03-14 0 10 0 36 3 827
2022-03-15 1 7 0 41 5 401
2022-03-16 0 2 0 39 5 518
2022-03-17 0 1 0 39 6 210
2022-03-18 0 3 2 41 8 871
2022-03-19 3 10 2 40 8 261
2022-03-20 0 2 0 41 7 879
2022-03-21 0 1 0 39 7 223
2022-03-22 0 2 0 39 5 856
2022-03-23 1 6 0 63 8 416
2022-03-24 0 3 0 43 8 308
2022-03-25 2 8 0 55 5 010
2022-03-26 0 6 0 43 11 353
2022-03-27 0 1 0 48 12 519
2022-03-28 0 1 1 41 14 845
2022-03-29 0 3 0 65 10 578
2022-03-30 0 2 0 54 8 689
2022-03-31 1 3 0 55 12 335
Février 2022 17 84 9 58 314 588
Janvier 2022 22 68 12 70 324 182
2022-01-01 0 0 0 39 10 922
2022-01-02 4 6 0 38 11 523
2022-01-03 0 2 0 51 9 782
2022-01-04 0 4 0 43 7 524
2022-01-05 1 2 1 35 10 245
2022-01-06 2 2 0 36 8 915
2022-01-07 0 0 0 55 8 448
2022-01-08 0 1 1 38 9 864
2022-01-09 0 0 0 42 10 293
2022-01-10 3 4 1 47 13 227
2022-01-11 0 0 0 50 10 507
2022-01-12 0 1 0 70 33 842
2022-01-13 0 3 0 43 9 184
2022-01-14 0 2 0 43 12 187
2022-01-15 0 1 0 39 10 512
2022-01-16 1 2 2 38 12 767
2022-01-17 1 4 2 45 10 200
2022-01-18 0 1 0 42 11 009
2022-01-19 0 2 0 38 9 173
2022-01-20 1 2 1 50 7 081
2022-01-21 0 0 0 44 5 118
2022-01-22 0 2 0 51 8 349
2022-01-23 1 4 1 53 6 097
2022-01-24 6 8 0 42 9 074
2022-01-25 0 0 0 52 9 326
2022-01-26 0 2 0 67 7 956
2022-01-27 1 6 1 49 9 815
2022-01-28 0 1 0 58 10 648
2022-01-29 1 3 1 37 10 936
2022-01-30 0 3 1 37 10 004
2022-01-31 0 0 0 41 9 654
* 2021 129 756 53 338 4 376 522
Décembre 2021 8 37 0 129 661 064
Novembre 2021 13 99 4 153 262 314
Octobre 2021 20 208 15 159 298 103
Septembre 2021 24 171 10 280 285 455
Août 2021 11 33 7 73 231 609
Juillet 2021 6 8 2 81 305 173
2021-07-01 0 0 0 75 10 036
2021-07-02 0 0 0 81 8 440
2021-07-03 0 0 0 67 13 230
2021-07-04 0 0 0 36 8 785
2021-07-05 0 0 0 40 9 194
2021-07-06 0 0 0 42 10 481
2021-07-07 0 0 0 39 7 665
2021-07-08 0 0 0 49 10 484
2021-07-09 0 0 0 50 10 282
2021-07-10 0 0 0 51 10 523
2021-07-11 0 0 0 50 8 246
2021-07-12 0 0 0 45 7 596
2021-07-13 0 0 0 35 7 852
2021-07-14 0 0 0 53 8 163
2021-07-15 0 0 0 38 9 082
2021-07-16 0 0 0 36 8 446
2021-07-17 0 0 1 39 9 669
2021-07-18 0 1 0 39 9 019
2021-07-19 0 0 0 43 11 040
2021-07-20 0 0 0 35 11 389
2021-07-21 0 0 0 40 7 890
2021-07-22 0 0 0 40 7 654
2021-07-23 0 0 0 35 8 792
2021-07-24 0 0 0 32 8 114
2021-07-25 0 0 0 33 6 522
2021-07-26 0 1 0 38 7 728
2021-07-27 0 0 0 35 9 299
2021-07-28 0 0 0 28 6 500
2021-07-29 0 0 0 35 36 222
2021-07-30 0 0 1 37 7 791
2021-07-31 6 6 0 32 9 039
Juin 2021 17 31 2 135 311 168
Mai 2021 3 31 4 268 597 777
2021-05-01 0 0 0 119 39 331
2021-05-02 0 0 0 106 59 354
2021-05-03 0 9 1 101 44 504
2021-05-04 0 2 0 125 12 453
2021-05-05 1 2 0 100 11 360
2021-05-06 0 0 0 101 9 692
2021-05-07 0 2 0 106 8 406
2021-05-08 0 0 0 99 174 998
2021-05-09 0 0 1 97 28 918
2021-05-10 1 2 0 97 8 620
2021-05-11 0 1 0 89 11 124
2021-05-12 0 0 0 83 7 881
2021-05-13 0 0 0 118 7 343
2021-05-14 0 2 0 93 7 444
2021-05-15 0 0 0 108 8 389
2021-05-16 0 0 0 88 7 431
2021-05-17 0 0 0 89 8 744
2021-05-18 0 1 0 92 6 838
2021-05-19 0 1 0 268 11 518
2021-05-20 0 0 0 98 21 067
2021-05-21 1 1 0 152 11 521
2021-05-22 0 0 0 146 11 070
2021-05-23 0 0 0 124 9 498
2021-05-24 0 1 0 109 10 311
2021-05-25 0 5 1 112 11 048
2021-05-26 0 0 0 115 7 597
2021-05-27 0 0 0 100 8 270
2021-05-28 0 0 0 70 10 782
2021-05-29 0 1 0 69 7 978
2021-05-30 0 0 1 67 7 768
2021-05-31 0 1 0 47 6 519
Avril 2021 10 51 6 287 308 355
Mars 2021 7 24 1 308 444 900
Février 2021 5 29 2 338 223 056
Janvier 2021 5 34 0 322 447 548
2021-01-01 0 0 0 65 8 853
2021-01-02 0 0 0 61 7 510
2021-01-03 0 0 0 56 8 223
2021-01-04 2 2 0 67 8 142
2021-01-05 0 3 0 56 8 281
2021-01-06 0 4 0 55 5 830
2021-01-07 0 2 0 55 4 092
2021-01-08 0 2 0 53 3 871
2021-01-09 0 0 0 70 5 919
2021-01-10 0 0 0 78 9 200
2021-01-11 1 2 0 66 7 730
2021-01-12 0 1 0 71 7 978
2021-01-13 0 1 0 64 8 287
2021-01-14 0 2 0 80 7 890
2021-01-15 0 0 0 85 9 193
2021-01-16 0 0 0 83 10 085
2021-01-17 0 3 0 81 9 818
2021-01-18 0 5 0 82 10 941
2021-01-19 1 1 0 86 9 009
2021-01-20 0 2 0 322 13 536
2021-01-21 0 1 0 81 24 497
2021-01-22 0 0 0 79 141 457
2021-01-23 0 0 0 85 10 393
2021-01-24 0 0 0 84 11 242
2021-01-25 1 1 0 80 10 151
2021-01-26 0 0 0 93 10 012
2021-01-27 0 1 0 88 10 831
2021-01-28 0 0 0 87 11 541
2021-01-29 0 1 0 81 9 358
2021-01-30 0 0 0 72 23 925
2021-01-31 0 0 0 67 19 753
* 2020 206 1 716 105 808 4 713 463
Décembre 2020 6 38 2 320 310 487
2020-12-01 1 1 0 121 10 809
2020-12-02 0 3 0 116 10 099
2020-12-03 0 2 0 114 11 876
2020-12-04 0 0 0 94 10 791
2020-12-05 0 3 0 82 9 574
2020-12-06 1 10 0 78 10 653
2020-12-07 0 4 0 68 10 998
2020-12-08 0 0 0 66 32 260
2020-12-09 0 1 0 67 7 435
2020-12-10 0 1 1 60 7 610
2020-12-11 0 0 0 60 7 643
2020-12-12 0 1 0 63 7 412
2020-12-13 0 1 0 50 7 185
2020-12-14 1 2 0 46 5 821
2020-12-15 0 1 0 44 8 427
2020-12-16 0 0 0 320 13 083
2020-12-17 0 0 0 74 9 703
2020-12-18 0 0 0 71 8 569
2020-12-19 0 0 0 63 7 390
2020-12-20 0 3 0 65 6 819
2020-12-21 1 1 0 59 6 108
2020-12-22 0 0 0 70 10 438
2020-12-23 0 1 0 73 9 331
2020-12-24 0 0 0 72 10 558
2020-12-25 0 0 0 77 9 826
2020-12-26 0 0 0 72 10 399
2020-12-27 1 1 1 88 10 008
2020-12-28 0 1 0 88 8 712
2020-12-29 1 1 0 105 10 795
2020-12-30 0 0 0 79 10 368
2020-12-31 0 0 0 69 9 787
Novembre 2020 12 97 3 352 464 426
2020-11-01 0 1 0 116 10 715
2020-11-02 2 3 0 125 9 649
2020-11-03 0 7 0 102 10 433
2020-11-04 0 0 0 95 11 152
2020-11-05 0 3 0 92 11 950
2020-11-06 1 4 0 86 9 328
2020-11-07 0 9 0 79 13 532
2020-11-08 0 4 0 97 10 296
2020-11-09 1 6 0 85 10 894
2020-11-10 0 5 0 79 6 851
2020-11-11 0 1 0 83 6 495
2020-11-12 0 1 0 86 10 836
2020-11-13 0 1 0 80 9 519
2020-11-14 0 0 0 72 8 283
2020-11-15 0 2 0 77 8 335
2020-11-16 3 10 1 78 9 396
2020-11-17 0 1 0 104 10 915
2020-11-18 1 2 0 352 16 974
2020-11-19 0 4 0 95 11 042
2020-11-20 1 4 2 87 10 172
2020-11-21 0 1 0 87 9 318
2020-11-22 1 7 0 81 8 520
2020-11-23 0 2 0 86 12 898
2020-11-24 0 3 0 101 11 997
2020-11-25 0 2 0 113 14 003
2020-11-26 1 3 0 108 12 703
2020-11-27 0 6 0 90 63 154
2020-11-28 0 1 0 92 102 895
2020-11-29 0 2 0 105 11 784
2020-11-30 1 2 0 116 10 387
Octobre 2020 21 169 7 346 497 422
Septembre 2020 30 356 15 133 325 183
2020-09-01 1 11 0 132 11 858
2020-09-02 0 7 0 119 11 233
2020-09-03 0 3 0 133 12 311
2020-09-04 0 1 0 107 9 419
2020-09-05 0 5 0 98 9 623
2020-09-06 0 2 0 91 8 360
2020-09-07 2 5 0 89 7 613
2020-09-08 3 18 1 94 7 993
2020-09-09 0 5 0 78 8 983
2020-09-10 2 17 3 79 8 902
2020-09-11 0 17 0 75 7 934
2020-09-12 0 7 1 79 9 406
2020-09-13 2 22 1 85 8 825
2020-09-14 2 20 0 96 9 426
2020-09-15 1 11 1 77 9 576
2020-09-16 2 8 0 91 13 248
2020-09-17 2 16 1 82 11 164
2020-09-18 1 20 1 84 10 275
2020-09-19 1 12 2 84 11 478
2020-09-20 1 7 0 79 12 324
2020-09-21 4 36 2 87 11 686
2020-09-22 1 22 0 87 12 418
2020-09-23 1 18 1 90 14 222
2020-09-24 0 10 0 77 12 651
2020-09-25 0 12 0 83 13 598
2020-09-26 0 7 0 93 10 763
2020-09-27 0 2 0 99 9 820
2020-09-28 2 17 0 117 11 475
2020-09-29 1 8 1 116 13 668
2020-09-30 1 10 0 123 14 931
Août 2020 16 147 7 163 471 897
Juillet 2020 16 77 2 100 345 760
Juin 2020 17 60 5 127 452 817
Mai 2020 7 22 3 295 321 652
Avril 2020 10 47 1 189 300 030
Mars 2020 24 253 3 199 467 854
2020-03-01 0 7 0 104 10 346
2020-03-02 0 5 0 126 6 471
2020-03-03 3 17 1 107 4 913
2020-03-04 0 10 0 116 5 122
2020-03-05 1 12 0 143 8 779
2020-03-06 0 9 0 144 11 988
2020-03-07 0 2 0 123 11 124
2020-03-08 0 5 0 122 13 134
2020-03-09 0 10 0 117 13 459
2020-03-10 2 5 0 114 11 164
2020-03-11 0 4 0 105 8 274
2020-03-12 0 10 0 199 11 093
2020-03-13 0 9 0 186 12 284
2020-03-14 1 11 0 189 12 386
2020-03-15 1 12 1 189 11 665
2020-03-16 1 3 0 173 10 318
2020-03-17 0 8 0 116 9 643
2020-03-18 0 2 0 107 8 287
2020-03-19 0 4 0 105 10 639
2020-03-20 0 0 0 116 10 883
2020-03-21 0 4 0 114 10 354
2020-03-22 0 0 0 119 9 230
2020-03-23 3 9 0 112 6 679
2020-03-24 0 7 0 113 47 441
2020-03-25 0 10 0 107 140 101
2020-03-26 5 9 0 119 6 876
2020-03-27 1 6 0 154 6 818
2020-03-28 1 16 0 114 7 190
2020-03-29 2 20 0 105 6 840
2020-03-30 1 13 0 121 11 552
2020-03-31 2 14 1 117 12 801
Février 2020 18 171 9 323 281 798
Janvier 2020 29 279 48 808 474 137
* 2019 246 3 411 313 446 3 308 531
Décembre 2019 18 159 26 446 351 248
Novembre 2019 16 245 33 325 524 135
Octobre 2019 24 272 59 121 189 762
2019-10-01 2 8 1 94 6 155
2019-10-02 1 4 4 88 3 845
2019-10-03 3 9 1 96 3 683
2019-10-04 0 14 2 89 5 498
2019-10-05 0 1 0 84 20 461
2019-10-06 2 9 2 99 13 970
2019-10-07 0 6 0 89 7 494
2019-10-08 0 11 1 101 7 092
2019-10-09 0 11 3 109 4 391
2019-10-10 2 19 3 96 5 295
2019-10-11 1 30 1 99 5 265
2019-10-12 0 19 5 115 5 091
2019-10-13 0 4 1 121 6 720
2019-10-14 2 14 2 108 6 374
2019-10-15 1 7 2 105 5 930
2019-10-16 0 3 1 99 5 079
2019-10-17 0 8 1 103 5 643
2019-10-18 0 3 2 96 4 595
2019-10-19 6 27 3 92 3 558
2019-10-20 0 7 1 112 5 029
2019-10-21 1 8 2 109 4 212
2019-10-22 0 7 1 104 4 800
2019-10-23 0 2 1 109 4 102
2019-10-24 0 9 1 106 6 806
2019-10-25 1 6 3 108 5 045
2019-10-26 0 2 2 106 5 937
2019-10-27 0 3 1 104 5 538
2019-10-28 2 6 3 103 4 525
2019-10-29 0 0 5 100 5 133
2019-10-30 0 3 3 100 4 364
2019-10-31 0 12 1 110 8 132
Septembre 2019 25 386 54 141 376 708
Août 2019 22 257 31 122 225 760
Juillet 2019 24 281 62 149 190 301
Juin 2019 11 171 3 112 246 519
Mai 2019 23 311 10 167 218 891
Avril 2019 21 294 9 174 311 459
Mars 2019 22 372 16 142 344 146
2019-03-01 0 30 0 102 3 220
2019-03-02 0 23 0 102 3 097
2019-03-03 0 4 0 99 2 763
2019-03-04 0 5 0 105 2 518
2019-03-05 0 11 0 99 3 314
2019-03-06 0 11 1 97 5 983
2019-03-07 1 6 2 102 6 254
2019-03-08 1 24 1 100 9 845
2019-03-09 1 11 1 104 9 974
2019-03-10 0 18 0 109 12 925
2019-03-11 3 18 1 124 22 284
2019-03-12 0 14 0 120 15 724
2019-03-13 1 23 1 125 13 212
2019-03-14 0 7 1 132 13 861
2019-03-15 2 17 1 112 12 323
2019-03-16 0 6 1 135 11 288
2019-03-17 0 6 0 129 10 798
2019-03-18 1 8 0 122 10 562
2019-03-19 1 7 0 126 9 470
2019-03-20 1 16 1 122 10 084
2019-03-21 1 12 1 128 13 887
2019-03-22 0 4 0 129 13 984
2019-03-23 2 9 0 123 14 498
2019-03-24 4 13 0 129 36 957
2019-03-25 0 14 0 134 17 651
2019-03-26 1 11 1 126 9 572
2019-03-27 0 4 0 56 8 627
2019-03-28 0 14 1 142 8 864
2019-03-29 0 5 0 126 11 607
2019-03-30 0 2 0 131 10 223
2019-03-31 2 19 2 129 8 777
Février 2019 18 288 4 110 142 132
Janvier 2019 22 375 6 113 187 470
2019-01-01 1 15 2 48 3 038
2019-01-02 1 15 0 46 2 001
2019-01-03 0 6 0 21 1 368
2019-01-04 1 11 0 45 1 552
2019-01-05 0 6 0 53 3 362
2019-01-06 0 8 0 63 4 705
2019-01-07 0 9 0 55 12 308
2019-01-08 2 13 0 53 18 061
2019-01-09 1 10 1 113 10 965
2019-01-10 1 29 1 113 14 217
2019-01-11 0 13 0 109 30 587
2019-01-12 0 7 0 109 8 140
2019-01-13 1 10 0 107 5 158
2019-01-14 4 31 0 103 4 347
2019-01-15 1 10 0 105 3 882
2019-01-16 1 13 0 111 3 382
2019-01-17 1 18 1 80 2 837
2019-01-18 0 8 0 101 2 592
2019-01-19 0 12 1 113 3 015
2019-01-20 0 16 0 100 2 773
2019-01-21 1 13 0 104 3 262
2019-01-22 0 4 0 103 2 681
2019-01-23 0 18 0 100 2 956
2019-01-24 0 14 0 103 4 754
2019-01-25 1 3 0 104 2 549
2019-01-26 4 22 0 106 3 353
2019-01-27 0 4 0 102 3 126
2019-01-28 0 7 0 108 3 010
2019-01-29 0 8 0 102 5 181
2019-01-30 0 6 0 100 9 811
2019-01-31 1 16 0 89 8 497
* 2018 338 6 176 81 641 2 624 946
Décembre 2018 43 306 8 253 421 582
Novembre 2018 26 467 9 641 383 363
2018-11-01 1 9 1 134 8 941
2018-11-02 0 12 0 138 13 320
2018-11-03 1 7 1 144 15 011
2018-11-04 5 36 0 176 20 866
2018-11-05 2 19 0 163 16 221
2018-11-06 1 18 1 130 15 015
2018-11-07 0 18 0 239 17 530
2018-11-08 1 13 1 200 11 015
2018-11-09 0 18 0 265 17 559
2018-11-10 1 13 1 262 23 662
2018-11-11 0 10 0 161 21 706
2018-11-12 1 22 0 274 33 147
2018-11-13 0 25 0 425 19 047
2018-11-14 1 18 1 550 12 156
2018-11-15 1 8 1 641 16 863
2018-11-16 1 14 0 168 16 611
2018-11-17 0 5 1 577 19 696
2018-11-18 0 5 0 184 9 470
2018-11-19 1 10 1 373 15 763
2018-11-20 1 23 0 257 11 354
2018-11-21 2 8 0 110 5 798
2018-11-22 0 9 0 89 5 367
2018-11-23 1 22 0 92 4 528
2018-11-24 1 21 0 30 2 309
2018-11-25 2 13 0 43 4 520
2018-11-26 2 26 0 34 2 339
2018-11-27 0 21 0 42 2 307
2018-11-28 0 20 0 116 5 597
2018-11-29 0 9 0 117 6 218
2018-11-30 0 15 0 109 9 427
Octobre 2018 34 527 6 321 248 725
2018-10-01 0 16 0 104 3 916
2018-10-02 2 19 0 102 5 182
2018-10-03 0 11 0 124 6 042
2018-10-04 1 8 0 89 7 397
2018-10-05 0 1 1 89 4 993
2018-10-06 1 10 0 123 5 725
2018-10-07 1 14 1 93 5 795
2018-10-08 2 17 0 102 5 479
2018-10-09 1 29 1 113 7 032
2018-10-10 1 19 0 139 7 853
2018-10-11 2 19 0 126 7 235
2018-10-12 1 28 0 140 7 594
2018-10-13 0 12 0 135 7 817
2018-10-14 5 26 0 146 7 428
2018-10-15 2 51 0 149 7 144
2018-10-16 0 22 0 102 6 306
2018-10-17 4 25 0 121 6 311
2018-10-18 2 14 0 122 6 339
2018-10-19 0 10 0 136 5 992
2018-10-20 0 8 0 115 6 644
2018-10-21 0 15 1 129 6 181
2018-10-22 0 11 0 112 5 588
2018-10-23 1 9 0 127 15 828
2018-10-24 1 15 1 135 23 623
2018-10-25 0 8 0 321 10 005
2018-10-26 2 34 1 145 7 134
2018-10-27 2 19 0 252 10 544
2018-10-28 0 9 0 276 9 982
2018-10-29 1 15 0 269 10 127
2018-10-30 2 21 0 207 9 059
2018-10-31 0 12 0 255 12 430
Septembre 2018 34 641 10 127 216 306
Août 2018 32 583 16 101 188 648
Juillet 2018 21 386 3 104 182 475
Juin 2018 31 442 3 110 213 303
Mai 2018 21 422 4 107 174 393
Avril 2018 25 564 5 104 159 849
2018-04-01 5 38 1 78 19 803
2018-04-02 1 37 0 81 4 900
2018-04-03 0 28 0 80 4 480
2018-04-04 1 26 0 88 4 206
2018-04-05 3 35 0 84 4 988
2018-04-06 0 18 0 82 4 984
2018-04-07 0 8 0 86 4 144
2018-04-08 2 17 0 90 4 595
2018-04-09 0 32 0 83 4 451
2018-04-10 0 21 0 84 4 551
2018-04-11 0 12 0 93 4 320
2018-04-12 0 21 0 104 5 608
2018-04-13 1 10 0 85 4 997
2018-04-14 2 39 1 91 4 749
2018-04-15 2 21 0 92 5 393
2018-04-16 1 13 0 92 5 327
2018-04-17 0 9 0 88 4 518
2018-04-18 0 12 1 89 4 185
2018-04-19 0 7 0 16 1 456
2018-04-20 0 6 0 82 2 948
2018-04-21 0 6 0 81 4 974
2018-04-22 0 3 0 83 4 887
2018-04-23 2 9 0 85 5 259
2018-04-24 3 20 0 82 4 998
2018-04-25 0 16 1 81 5 180
2018-04-26 0 11 0 78 4 558
2018-04-27 1 23 1 86 10 368
2018-04-28 0 26 0 88 5 449
2018-04-29 1 20 0 86 4 042
2018-04-30 0 20 0 99 5 531
Mars 2018 20 634 4 96 152 933
2018-03-01 0 7 0 20 8 226
2018-03-02 0 23 0 16 1 189
2018-03-03 0 28 0 19 1 566
2018-03-04 1 44 0 21 1 915
2018-03-05 0 11 0 17 1 328
2018-03-06 0 10 0 75 1 912
2018-03-07 1 21 0 89 4 461
2018-03-08 0 18 0 83 4 381
2018-03-09 0 14 0 94 4 761
2018-03-10 0 22 0 87 5 080
2018-03-11 1 24 0 90 6 619
2018-03-12 4 69 2 79 4 642
2018-03-13 2 36 1 88 5 239
2018-03-14 1 25 0 90 4 987
2018-03-15 2 9 0 81 4 572
2018-03-16 0 7 0 77 4 268
2018-03-17 0 9 0 81 4 271
2018-03-18 0 13 0 91 4 435
2018-03-19 2 12 0 79 4 301
2018-03-20 0 30 0 87 4 317
2018-03-21 0 7 0 86 4 027
2018-03-22 1 19 0 84 4 514
2018-03-23 0 14 0 91 4 486
2018-03-24 0 6 0 81 4 292
2018-03-25 0 11 0 78 4 516
2018-03-26 2 16 0 86 4 584
2018-03-27 0 7 0 80 4 375
2018-03-28 0 22 0 80 4 705
2018-03-29 0 27 0 79 4 483
2018-03-30 1 40 1 82 4 671
2018-03-31 2 33 0 96 25 810
Février 2018 25 631 7 93 121 912
Janvier 2018 26 573 6 94 161 457
2018-01-01 1 13 0 81 3 873
2018-01-02 0 35 0 86 4 281
2018-01-03 0 16 0 84 4 474
2018-01-04 0 12 0 88 3 657
2018-01-05 0 25 0 83 5 021
2018-01-06 1 14 1 84 5 114
2018-01-07 3 35 0 78 5 039
2018-01-08 0 12 0 91 4 838
2018-01-09 2 43 1 88 5 141
2018-01-10 0 18 0 87 5 299
2018-01-11 0 6 0 74 2 983
2018-01-12 1 12 1 15 1 584
2018-01-13 4 36 0 18 1 661
2018-01-14 2 33 0 27 2 978
2018-01-15 0 10 0 22 2 126
2018-01-16 0 19 0 18 1 286
2018-01-17 0 6 0 16 1 525
2018-01-18 0 13 1 77 2 416
2018-01-19 0 24 0 88 4 882
2018-01-20 1 10 0 83 4 920
2018-01-21 0 14 0 86 5 414
2018-01-22 0 15 0 88 5 074
2018-01-23 0 21 0 91 4 662
2018-01-24 1 8 0 17 13 946
2018-01-25 0 11 0 80 24 972
2018-01-26 0 13 0 91 3 885
2018-01-27 2 12 2 85 6 401
2018-01-28 6 32 0 92 7 019
2018-01-29 1 12 0 86 5 701
2018-01-30 0 20 0 94 5 869
2018-01-31 1 23 0 88 5 416
* 2017 346 6 100 56 180 1 675 168
Décembre 2017 37 499 6 91 136 063
Novembre 2017 37 675 6 93 169 670
2017-11-01 3 9 0 77 4 022
2017-11-02 0 22 0 71 4 259
2017-11-03 0 11 0 82 4 272
2017-11-04 0 3 0 76 3 820
2017-11-05 3 29 2 77 4 573
2017-11-06 6 37 1 81 5 440
2017-11-07 0 24 0 74 2 841
2017-11-08 1 34 1 83 6 609
2017-11-09 0 19 0 79 3 795
2017-11-10 1 17 0 77 5 155
2017-11-11 2 32 0 75 4 737
2017-11-12 4 45 0 77 4 783
2017-11-13 1 20 1 77 4 342
2017-11-14 0 9 0 80 4 249
2017-11-15 0 14 0 77 3 973
2017-11-16 0 24 0 73 4 676
2017-11-17 1 21 0 75 4 258
2017-11-18 5 27 0 69 3 974
2017-11-19 0 24 0 79 4 936
2017-11-20 1 23 0 87 4 575
2017-11-21 0 5 0 83 5 092
2017-11-22 1 16 1 92 3 731
2017-11-23 2 24 0 86 5 187
2017-11-24 0 33 0 81 5 193
2017-11-25 0 13 0 79 4 469
2017-11-26 1 16 0 83 4 212
2017-11-27 2 54 0 80 4 643
2017-11-28 2 14 0 93 13 745
2017-11-29 1 23 0 89 28 566
2017-11-30 0 33 0 93 5 543
Octobre 2017 15 426 2 93 151 449
Septembre 2017 28 548 5 94 135 543
Août 2017 29 384 6 99 148 097
Juillet 2017 25 490 5 87 176 472
2017-07-01 0 15 0 70 4 062
2017-07-02 0 3 1 65 3 539
2017-07-03 1 23 1 62 3 836
2017-07-04 1 26 0 72 3 952
2017-07-05 1 10 0 61 4 350
2017-07-06 1 29 0 87 4 569
2017-07-07 0 20 1 77 4 031
2017-07-08 1 22 0 69 5 874
2017-07-09 0 19 0 69 7 487
2017-07-10 0 17 0 72 5 879
2017-07-11 1 4 0 67 7 492
2017-07-12 0 5 0 71 6 813
2017-07-13 1 4 0 79 25 553
2017-07-14 0 5 0 87 5 690
2017-07-15 0 5 0 72 4 170
2017-07-16 2 18 0 78 4 326
2017-07-17 5 25 0 73 4 689
2017-07-18 0 17 1 76 4 440
2017-07-19 1 19 0 83 3 965
2017-07-20 0 12 0 76 4 047
2017-07-21 1 19 1 75 5 666
2017-07-22 1 10 0 72 4 430
2017-07-23 2 22 0 77 5 427
2017-07-24 0 21 0 83 6 448
2017-07-25 1 16 0 69 4 956
2017-07-26 3 31 0 84 5 953
2017-07-27 0 21 0 75 5 107
2017-07-28 0 12 0 70 6 063
2017-07-29 0 18 0 72 5 667
2017-07-30 1 9 0 67 4 294
2017-07-31 1 13 0 68 3 697
Juin 2017 33 603 4 89 156 248
Mai 2017 26 470 2 99 181 189
Avril 2017 31 490 5 180 139 896
2017-04-01 0 14 0 48 4 179
2017-04-02 1 21 0 41 11 405
2017-04-03 2 14 0 44 1 551
2017-04-04 0 6 0 22 930
2017-04-05 2 13 0 19 1 221
2017-04-06 0 20 0 20 4 204
2017-04-07 0 9 0 19 2 345
2017-04-08 1 18 0 22 2 529
2017-04-09 1 5 1 17 1 209
2017-04-10 3 36 1 44 2 839
2017-04-11 2 22 0 74 4 607
2017-04-12 2 19 0 62 5 808
2017-04-13 0 31 0 64 3 713
2017-04-14 2 35 0 59 3 257
2017-04-15 0 8 0 68 3 136
2017-04-16 0 12 0 63 3 438
2017-04-17 2 22 0 58 3 762
2017-04-18 2 30 0 81 5 391
2017-04-19 1 23 1 122 6 928
2017-04-20 1 8 0 68 5 309
2017-04-21 0 14 0 51 3 988
2017-04-22 0 2 0 47 4 082
2017-04-23 2 18 0 51 6 943
2017-04-24 1 15 1 51 4 833
2017-04-25 2 26 1 180 6 646
2017-04-26 3 19 0 83 8 145
2017-04-27 0 2 0 68 8 631
2017-04-28 0 2 0 61 4 684
2017-04-29 1 18 0 58 6 307
2017-04-30 0 8 0 54 7 876
Mars 2017 27 432 3 119 90 981
Février 2017 31 587 7 87 74 924
Janvier 2017 27 496 5 80 114 636
2017-01-01 1 23 0 54 2 509
2017-01-02 2 27 0 28 2 705
2017-01-03 0 12 0 73 3 331
2017-01-04 1 5 0 65 3 498
2017-01-05 1 16 0 64 3 927
2017-01-06 0 18 0 65 3 258
2017-01-07 1 9 1 53 3 015
2017-01-08 0 16 0 57 3 949
2017-01-09 0 5 0 52 5 170
2017-01-10 1 9 0 49 4 823
2017-01-11 0 15 0 71 3 456
2017-01-12 0 12 1 80 3 183
2017-01-13 0 7 1 58 2 124
2017-01-14 5 10 0 61 2 678
2017-01-15 1 7 0 63 3 386
2017-01-16 1 28 1 59 3 267
2017-01-17 0 8 0 50 2 647
2017-01-18 1 13 0 63 3 800
2017-01-19 0 8 0 57 2 844
2017-01-20 0 22 0 57 3 446
2017-01-21 5 26 0 55 4 318
2017-01-22 0 24 0 55 4 567
2017-01-23 1 24 1 51 4 320
2017-01-24 0 27 0 55 3 811
2017-01-25 0 7 0 73 3 931
2017-01-26 0 16 0 59 4 468
2017-01-27 0 8 0 58 4 403
2017-01-28 0 19 0 58 3 812
2017-01-29 1 20 0 64 5 384
2017-01-30 2 26 0 61 4 841
2017-01-31 3 29 0 68 3 765
* 2016 389 7 721 79 245 2 075 605
Décembre 2016 34 533 2 170 118 206
2016-12-01 0 1 0 74 3 445
2016-12-02 0 8 0 55 3 761
2016-12-03 0 7 0 58 2 184
2016-12-04 9 30 0 53 2 958
2016-12-05 0 35 0 65 4 219
2016-12-06 2 23 0 64 3 665
2016-12-07 1 23 0 60 4 594
2016-12-08 2 17 0 125 6 276
2016-12-09 1 21 0 76 3 458
2016-12-10 2 15 2 61 3 661
2016-12-11 1 37 0 68 3 369
2016-12-12 3 11 0 63 2 902
2016-12-13 0 10 0 59 3 821
2016-12-14 1 18 0 74 4 666
2016-12-15 0 18 0 72 3 378
2016-12-16 1 19 0 35 2 487
2016-12-17 0 8 0 73 2 573
2016-12-18 0 11 0 81 15 525
2016-12-19 1 15 0 61 3 437
2016-12-20 0 9 0 56 3 667
2016-12-21 0 15 0 54 2 974
2016-12-22 0 25 0 56 2 993
2016-12-23 0 13 0 56 3 867
2016-12-24 0 10 0 55 2 712
2016-12-25 1 11 0 170 3 278
2016-12-26 3 10 0 72 3 609
2016-12-27 3 23 0 59 2 265
2016-12-28 1 21 0 51 3 618
2016-12-29 0 34 0 55 2 903
2016-12-30 2 13 0 58 3 351
2016-12-31 0 22 0 54 2 590
Novembre 2016 34 586 6 245 122 991
Octobre 2016 43 726 7 191 160 217
2016-10-01 0 2 0 77 5 321
2016-10-02 1 21 0 58 3 379
2016-10-03 0 20 0 65 4 029
2016-10-04 4 16 0 54 5 012
2016-10-05 2 26 1 54 8 464
2016-10-06 2 23 0 54 4 844
2016-10-07 3 30 0 58 4 198
2016-10-08 0 20 0 79 5 202
2016-10-09 2 16 0 139 7 188
2016-10-10 0 23 0 67 5 666
2016-10-11 5 27 0 65 5 851
2016-10-12 1 57 0 55 5 424
2016-10-13 4 46 1 60 5 322
2016-10-14 3 27 0 63 4 776
2016-10-15 6 27 0 191 5 482
2016-10-16 1 37 1 83 5 433
2016-10-17 3 23 0 82 4 868
2016-10-18 0 9 0 66 3 634
2016-10-19 0 13 1 64 4 158
2016-10-20 0 22 1 56 15 180
2016-10-21 0 14 0 55 4 340
2016-10-22 1 19 0 57 3 387
2016-10-23 0 3 0 30 2 919
2016-10-24 1 40 1 78 4 044
2016-10-25 2 31 0 76 4 859
2016-10-26 0 26 0 72 5 816
2016-10-27 0 20 0 72 3 954
2016-10-28 0 19 0 70 4 387
2016-10-29 0 26 0 63 4 333
2016-10-30 1 16 0 66 4 530
2016-10-31 1 27 1 77 4 217
Septembre 2016 26 657 9 85 157 449
Août 2016 31 721 9 114 169 873
Juillet 2016 19 513 3 58 166 690
Juin 2016 30 565 5 53 211 715
2016-06-01 0 23 0 50 5 705
2016-06-02 0 11 0 43 5 378
2016-06-03 2 19 1 44 5 189
2016-06-04 3 11 1 41 4 784
2016-06-05 0 5 0 43 4 968
2016-06-06 0 12 0 42 4 648
2016-06-07 1 23 0 38 4 900
2016-06-08 3 37 0 44 5 735
2016-06-09 0 14 0 45 5 120
2016-06-10 1 34 0 44 6 103
2016-06-11 1 16 0 41 10 876
2016-06-12 2 17 1 41 13 531
2016-06-13 1 35 0 53 6 090
2016-06-14 3 21 1 41 5 179
2016-06-15 0 17 0 51 5 317
2016-06-16 1 28 1 42 5 293
2016-06-17 1 21 0 44 5 043
2016-06-18 1 23 0 43 5 316
2016-06-19 3 20 0 42 5 955
2016-06-20 2 35 0 42 6 606
2016-06-21 1 25 0 44 7 531
2016-06-22 0 23 0 38 6 542
2016-06-23 0 25 0 42 7 081
2016-06-24 0 11 0 43 8 292
2016-06-25 0 10 0 44 10 674
2016-06-26 0 7 0 44 4 154
2016-06-27 2 5 0 41 6 089
2016-06-28 1 12 0 38 13 559
2016-06-29 1 15 0 43 13 424
2016-06-30 0 10 0 53 12 633
Mai 2016 40 1 116 8 94 166 514
Avril 2016 27 529 7 65 155 208
2016-04-01 3 38 2 30 3 618
2016-04-02 0 23 1 23 3 917
2016-04-03 3 45 1 65 6 292
2016-04-04 3 45 0 31 4 738
2016-04-05 0 6 0 26 3 350
2016-04-06 0 15 0 22 4 462
2016-04-07 1 13 1 21 3 485
2016-04-08 0 9 0 23 3 328
2016-04-09 2 17 0 24 3 870
2016-04-10 0 13 0 25 4 267
2016-04-11 0 19 0 55 6 024
2016-04-12 1 16 0 59 14 106
2016-04-13 4 14 0 59 11 237
2016-04-14 0 14 0 52 5 426
2016-04-15 1 14 0 20 3 457
2016-04-16 0 7 0 50 5 198
2016-04-17 0 2 0 49 5 204
2016-04-18 1 17 1 20 4 013
2016-04-19 0 11 1 20 3 807
2016-04-20 1 17 0 23 3 488
2016-04-21 0 16 0 25 3 419
2016-04-22 0 21 0 37 4 063
2016-04-23 0 8 0 36 4 166
2016-04-24 1 14 0 37 5 654
2016-04-25 2 25 0 65 6 602
2016-04-26 0 16 0 63 5 983
2016-04-27 0 20 0 49 6 244
2016-04-28 1 12 0 54 6 223
2016-04-29 3 29 0 22 4 065
2016-04-30 0 13 0 56 5 502
Mars 2016 35 513 11 88 224 056
Février 2016 35 640 4 96 192 454
2016-02-01 1 22 0 74 8 459
2016-02-02 0 20 0 87 6 602
2016-02-03 2 37 0 76 17 946
2016-02-04 0 19 0 64 5 160
2016-02-05 1 28 0 73 4 553
2016-02-06 2 27 0 78 4 715
2016-02-07 4 24 0 69 4 878
2016-02-08 0 21 0 22 2 514
2016-02-09 0 10 0 72 6 304
2016-02-10 1 10 0 90 4 785
2016-02-11 1 27 0 77 5 427
2016-02-12 0 34 0 82 5 486
2016-02-13 1 28 1 77 6 932
2016-02-14 1 24 0 82 7 091
2016-02-15 3 42 1 81 5 791
2016-02-16 1 25 1 75 6 305
2016-02-17 2 35 0 95 5 664
2016-02-18 2 36 0 76 5 744
2016-02-19 1 24 0 76 5 288
2016-02-20 4 21 0 96 5 390
2016-02-21 2 14 1 70 5 007
2016-02-22 1 24 0 84 5 259
2016-02-23 2 21 0 78 6 312
2016-02-24 0 11 0 80 7 832
2016-02-25 1 5 0 79 5 226
2016-02-26 0 10 0 70 5 018
2016-02-27 2 21 0 75 5 289
2016-02-28 0 9 0 83 12 718
2016-02-29 0 11 0 72 14 759
Janvier 2016 35 622 8 95 230 232
* 2015 373 6 684 79 100 1 549 803
Décembre 2015 28 499 7 68 140 303
2015-12-01 0 25 0 16 2 350
2015-12-02 0 13 0 16 2 355
2015-12-03 1 32 1 21 3 677
2015-12-04 0 20 0 17 2 064
2015-12-05 0 16 1 21 3 894
2015-12-06 0 13 0 20 5 745
2015-12-07 0 6 0 35 3 625
2015-12-08 1 17 0 32 4 443
2015-12-09 0 4 0 35 7 622
2015-12-10 1 6 0 32 5 400
2015-12-11 0 19 0 35 19 913
2015-12-12 1 21 1 25 3 299
2015-12-13 7 38 0 30 4 377
2015-12-14 0 26 0 27 3 642
2015-12-15 2 29 1 32 5 486
2015-12-16 4 39 0 37 6 111
2015-12-17 0 14 0 18 3 269
2015-12-18 0 17 0 13 2 944
2015-12-19 1 16 0 18 3 387
2015-12-20 0 14 0 17 3 339
2015-12-21 0 2 0 14 2 174
2015-12-22 0 0 1 21 3 147
2015-12-23 2 10 0 14 2 552
2015-12-24 1 11 0 43 2 912
2015-12-25 2 20 0 13 2 346
2015-12-26 0 10 0 12 2 235
2015-12-27 1 11 0 10 6 406
2015-12-28 3 29 1 65 5 360
2015-12-29 0 2 1 53 4 266
2015-12-30 1 12 0 68 5 376
2015-12-31 0 7 0 57 6 587
Novembre 2015 40 724 5 35 146 607
Octobre 2015 32 760 10 84 227 528
2015-10-01 1 18 0 82 8 525
2015-10-02 1 10 0 80 4 829
2015-10-03 0 7 0 13 2 541
2015-10-04 0 7 0 74 5 391
2015-10-05 3 45 2 39 10 558
2015-10-06 4 42 1 84 20 928
2015-10-07 0 30 0 79 21 334
2015-10-08 0 12 0 39 12 723
2015-10-09 1 14 2 22 4 574
2015-10-10 0 8 0 80 5 752
2015-10-11 1 36 0 23 4 613
2015-10-12 3 25 0 23 3 928
2015-10-13 0 35 0 20 3 575
2015-10-14 3 25 0 79 9 055
2015-10-15 1 32 0 22 7 638
2015-10-16 1 43 0 82 8 658
2015-10-17 0 34 0 62 6 865
2015-10-18 2 31 0 66 5 798
2015-10-19 0 21 0 73 5 660
2015-10-20 1 29 0 23 4 062
2015-10-21 0 22 0 28 20 035
2015-10-22 1 22 1 27 6 384
2015-10-23 2 15 0 25 6 058
2015-10-24 2 27 2 26 4 323
2015-10-25 0 11 0 32 4 915
2015-10-26 2 22 0 31 4 192
2015-10-27 0 26 1 41 5 915
2015-10-28 1 28 0 41 5 310
2015-10-29 2 29 0 21 4 485
2015-10-30 0 38 0 23 4 216
2015-10-31 0 16 1 27 4 688
Septembre 2015 40 948 13 100 169 012
Août 2015 36 566 12 61 119 954
2015-08-01 2 13 0 18 2 717
2015-08-02 0 7 0 13 2 055
2015-08-03 7 20 2 15 2 199
2015-08-04 1 9 0 40 3 590
2015-08-05 0 13 0 16 2 911
2015-08-06 0 5 0 14 2 574
2015-08-07 0 22 0 17 3 967
2015-08-08 0 14 0 17 3 023
2015-08-09 5 32 1 18 2 992
2015-08-10 2 30 1 17 4 088
2015-08-11 1 16 1 15 2 652
2015-08-12 3 23 0 16 2 544
2015-08-13 0 7 0 14 2 436
2015-08-14 0 8 0 55 4 945
2015-08-15 1 11 0 52 4 116
2015-08-16 0 12 0 13 2 678
2015-08-17 0 2 0 54 3 352
2015-08-18 0 6 0 49 3 473
2015-08-19 0 2 0 29 2 985
2015-08-20 1 13 1 19 3 315
2015-08-21 0 13 0 54 5 973
2015-08-22 0 4 0 13 4 672
2015-08-23 3 21 1 21 3 708
2015-08-24 2 33 2 19 4 048
2015-08-25 1 46 1 25 5 182
2015-08-26 0 17 0 18 5 281
2015-08-27 0 23 0 28 5 761
2015-08-28 1 44 1 17 5 899
2015-08-29 0 37 0 43 5 544
2015-08-30 1 26 1 43 3 953
2015-08-31 5 37 0 61 7 321
Juillet 2015 29 462 7 31 89 666
Juin 2015 24 453 5 30 112 317
2015-06-01 1 21 1 25 4 795
2015-06-02 0 13 0 13 1 648
2015-06-03 1 16 1 14 4 304
2015-06-04 1 25 0 14 3 105
2015-06-05 0 20 0 15 1 807
2015-06-06 1 21 0 17 2 532
2015-06-07 4 18 0 16 1 899
2015-06-08 0 12 0 14 2 343
2015-06-09 1 10 0 18 2 371
2015-06-10 0 10 0 20 7 902
2015-06-11 1 19 0 11 4 495
2015-06-12 0 7 0 13 1 558
2015-06-13 1 6 0 13 1 791
2015-06-14 0 11 0 14 2 048
2015-06-15 3 13 0 19 1 997
2015-06-16 0 10 0 18 1 599
2015-06-17 1 17 0 17 2 018
2015-06-18 0 13 0 12 1 641
2015-06-19 0 7 0 15 1 876
2015-06-20 0 9 0 12 1 521
2015-06-21 0 10 0 15 1 695
2015-06-22 1 19 0 16 2 896
2015-06-23 1 23 1 22 11 490
2015-06-24 2 23 0 30 13 135
2015-06-25 0 11 0 18 9 448
2015-06-26 3 23 0 20 11 127
2015-06-27 0 7 0 17 2 548
2015-06-28 0 5 0 13 2 651
2015-06-29 2 29 2 18 2 252
2015-06-30 0 25 0 19 1 825
Mai 2015 30 390 2 24 73 874
Avril 2015 29 408 4 25 95 371
2015-04-01 1 15 0 20 2 794
2015-04-02 1 21 0 16 2 834
2015-04-03 0 14 0 17 2 508
2015-04-04 0 8 0 15 1 598
2015-04-05 0 4 0 16 4 225
2015-04-06 1 5 0 22 4 037
2015-04-07 1 8 0 17 3 300
2015-04-08 0 16 0 22 2 846
2015-04-09 0 3 0 18 3 300
2015-04-10 2 18 0 22 3 304
2015-04-11 1 19 1 18 3 102
2015-04-12 0 7 1 12 2 663
2015-04-13 1 10 0 14 3 621
2015-04-14 0 16 0 25 2 946
2015-04-15 0 5 0 17 2 800
2015-04-16 0 3 0 19 3 815
2015-04-17 1 9 0 16 3 313
2015-04-18 0 11 0 16 3 035
2015-04-19 0 5 0 16 4 184
2015-04-20 1 8 0 16 2 818
2015-04-21 0 1 0 18 2 616
2015-04-22 1 13 0 18 2 909
2015-04-23 0 19 0 24 4 246
2015-04-24 0 18 0 18 3 149
2015-04-25 8 32 1 17 3 211
2015-04-26 4 35 0 20 3 250
2015-04-27 3 35 0 18 3 609
2015-04-28 0 6 0 13 3 318
2015-04-29 2 23 1 16 3 839
2015-04-30 1 21 0 16 2 181
Mars 2015 38 550 7 37 130 116
Février 2015 15 434 2 24 123 854
2015-02-01 1 23 0 15 2 764
2015-02-02 4 16 0 19 3 123
2015-02-03 0 24 0 19 3 982
2015-02-04 0 20 0 20 13 958
2015-02-05 0 8 0 15 4 445
2015-02-06 2 15 0 17 4 092
2015-02-07 0 11 0 17 3 923
2015-02-08 0 16 0 15 2 919
2015-02-09 0 47 0 18 3 036
2015-02-10 0 16 0 17 3 314
2015-02-11 0 4 0 15 3 212
2015-02-12 0 13 0 18 3 091
2015-02-13 0 24 0 15 3 570
2015-02-14 2 24 1 16 3 435
2015-02-15 4 38 0 16 3 932
2015-02-16 1 26 0 15 4 563
2015-02-17 0 6 0 15 2 297
2015-02-18 0 2 0 12 2 335
2015-02-19 0 7 0 17 2 509
2015-02-20 0 13 0 14 2 356
2015-02-21 0 7 0 22 4 319
2015-02-22 0 9 0 21 4 162
2015-02-23 0 19 0 19 3 587
2015-02-24 0 5 0 18 2 084
2015-02-25 0 10 0 16 3 096
2015-02-26 0 15 0 21 10 939
2015-02-27 0 2 0 24 9 803
2015-02-28 1 14 1 22 9 008
Janvier 2015 32 490 5 44 121 201
* 2014 428 7 364 58 58 2 478 164
Décembre 2014 24 360 4 33 191 610
Novembre 2014 37 572 7 46 525 858
2014-11-01 0 10 0 39 31 767
2014-11-02 4 28 1 38 30 905
2014-11-03 2 15 1 46 35 171
2014-11-04 0 10 0 45 33 110
2014-11-05 1 19 0 42 33 257
2014-11-06 1 32 0 37 27 962
2014-11-07 3 33 0 40 33 652
2014-11-08 2 9 0 45 28 231
2014-11-09 1 24 0 32 22 476
2014-11-10 0 24 0 45 25 456
2014-11-11 0 29 0 35 24 461
2014-11-12 0 13 0 34 21 316
2014-11-13 0 10 0 27 13 857
2014-11-14 0 11 0 28 11 982
2014-11-15 2 21 0 34 10 235
2014-11-16 1 26 0 27 8 102
2014-11-17 2 16 0 25 10 338
2014-11-18 1 10 0 25 9 298
2014-11-19 0 8 0 25 10 140
2014-11-20 4 18 0 24 9 332
2014-11-21 0 12 1 26 11 050
2014-11-22 0 14 1 26 8 358
2014-11-23 2 15 1 22 6 229
2014-11-24 4 35 0 26 9 487
2014-11-25 0 14 0 30 14 490
2014-11-26 3 20 1 25 10 319
2014-11-27 0 31 0 28 9 632
2014-11-28 2 22 0 24 7 672
2014-11-29 2 27 1 25 9 524
2014-11-30 0 16 0 22 8 049
Octobre 2014 45 928 8 58 364 915
Septembre 2014 24 549 8 32 162 413
Août 2014 17 251 4 27 191 624
Juillet 2014 25 369 3 30 236 312
2014-07-01 1 10 0 19 5 255
2014-07-02 2 27 0 18 5 751
2014-07-03 1 33 0 28 6 315
2014-07-04 1 28 1 30 9 465
2014-07-05 0 18 0 28 10 029
2014-07-06 0 9 0 22 8 518
2014-07-07 2 9 0 26 4 726
2014-07-08 1 9 1 20 6 102
2014-07-09 1 7 0 20 6 697
2014-07-10 0 5 0 22 5 937
2014-07-11 0 12 0 13 5 141
2014-07-12 0 8 0 23 8 506
2014-07-13 1 7 0 19 9 921
2014-07-14 1 16 0 12 5 280
2014-07-15 4 12 0 13 3 488
2014-07-16 1 7 0 28 10 016
2014-07-17 0 9 0 24 16 100
2014-07-18 0 11 0 23 16 608
2014-07-19 1 7 0 18 16 697
2014-07-20 1 7 0 20 4 967
2014-07-21 0 1 0 26 6 993
2014-07-22 1 11 0 21 8 213
2014-07-23 0 13 0 23 8 227
2014-07-24 0 1 0 23 8 500
2014-07-25 1 8 0 21 8 352
2014-07-26 0 4 0 21 6 351
2014-07-27 1 22 1 11 2 847
2014-07-28 2 21 0 17 4 541
2014-07-29 0 7 0 16 6 234
2014-07-30 0 17 0 18 5 977
2014-07-31 2 13 0 15 4 558
Juin 2014 29 602 3 32 220 918
Mai 2014 34 842 6 29 157 174
2014-05-01 2 54 0 15 2 998
2014-05-02 0 19 1 14 4 416
2014-05-03 1 14 0 12 2 336
2014-05-04 1 28 0 18 11 859
2014-05-05 0 15 0 14 1 396
2014-05-06 0 11 1 22 4 797
2014-05-07 0 9 0 18 3 829
2014-05-08 2 27 0 22 3 479
2014-05-09 2 33 0 14 3 211
2014-05-10 0 18 0 16 3 340
2014-05-11 2 36 1 19 4 081
2014-05-12 3 64 0 20 4 198
2014-05-13 2 32 0 19 3 565
2014-05-14 0 20 0 26 2 887
2014-05-15 2 23 0 22 3 577
2014-05-16 0 11 0 22 3 219
2014-05-17 2 16 0 22 3 583
2014-05-18 1 16 1 19 4 010
2014-05-19 3 51 1 22 4 120
2014-05-20 1 19 0 20 8 095
2014-05-21 0 28 0 18 6 029
2014-05-22 1 42 0 20 3 420
2014-05-23 1 46 0 26 7 952
2014-05-24 0 31 0 27 3 774
2014-05-25 2 60 0 25 7 974
2014-05-26 2 56 0 24 11 539
2014-05-27 1 15 0 22 8 592
2014-05-28 1 16 0 21 5 451
2014-05-29 0 9 0 21 5 330
2014-05-30 2 12 1 29 7 112
2014-05-31 0 11 0 25 7 005
Avril 2014 45 662 1 25 104 486
2014-04-01 3 29 0 14 4 594
2014-04-02 3 19 0 19 3 032
2014-04-03 2 14 0 13 2 744
2014-04-04 0 12 0 14 3 214
2014-04-05 0 5 0 17 3 260
2014-04-06 0 6 0 18 3 097
2014-04-07 1 13 0 20 2 585
2014-04-08 0 11 0 23 3 197
2014-04-09 1 11 0 18 3 647
2014-04-10 0 8 1 17 3 928
2014-04-11 0 9 0 20 2 170
2014-04-12 1 13 0 24 2 967
2014-04-13 0 13 0 21 3 698
2014-04-14 1 8 0 23 3 494
2014-04-15 4 15 0 22 6 980
2014-04-16 1 25 0 19 4 022
2014-04-17 0 17 0 15 6 056
2014-04-18 3 22 0 17 2 815
2014-04-19 0 16 0 17 2 641
2014-04-20 1 11 0 18 4 085
2014-04-21 2 23 0 22 3 723
2014-04-22 0 30 0 22 4 837
2014-04-23 0 37 0 24 3 303
2014-04-24 3 36 0 25 3 341
2014-04-25 8 65 0 18 2 930
2014-04-26 3 46 0 19 2 659
2014-04-27 5 45 0 19 3 483
2014-04-28 0 19 0 19 2 858
2014-04-29 2 46 0 14 2 266
2014-04-30 1 38 0 14 2 860
Mars 2014 32 595 4 26 120 439
Février 2014 24 660 5 28 102 996
Janvier 2014 92 974 5 33 99 419
* 2013 408 8 887 76 89 1 597 727
Décembre 2013 36 785 2 79 132 305
2013-12-01 3 40 0 21 5 124
2013-12-02 0 18 0 23 3 630
2013-12-03 1 22 0 18 2 691
2013-12-04 0 21 0 20 2 917
2013-12-05 2 34 1 74 3 596
2013-12-06 0 14 0 29 4 033
2013-12-07 0 11 0 21 3 141
2013-12-08 2 50 0 20 11 319
2013-12-09 3 47 0 79 15 790
2013-12-10 0 42 0 40 6 438
2013-12-11 0 29 0 23 4 171
2013-12-12 1 32 0 22 3 225
2013-12-13 1 21 0 26 3 543
2013-12-14 0 11 0 23 4 807
2013-12-15 0 20 0 17 3 540
2013-12-16 5 50 0 22 4 009
2013-12-17 2 27 0 23 3 856
2013-12-18 1 53 0 23 4 339
2013-12-19 0 23 0 18 3 138
2013-12-20 0 5 0 16 1 779
2013-12-21 1 26 0 22 3 370
2013-12-22 3 27 0 22 4 250
2013-12-23 0 7 1 16 2 431
2013-12-24 1 16 0 14 2 139
2013-12-25 1 20 0 14 2 448
2013-12-26 0 14 0 17 3 918
2013-12-27 0 31 0 27 3 690
2013-12-28 2 32 0 22 4 302
2013-12-29 2 16 0 19 3 362
2013-12-30 3 13 0 15 3 871
2013-12-31 2 13 0 19 3 438
Novembre 2013 36 751 8 29 141 119
Octobre 2013 37 683 10 26 116 570
Septembre 2013 33 723 15 29 160 779
2013-09-01 0 57 0 19 3 222
2013-09-02 2 24 0 21 3 211
2013-09-03 1 22 0 19 3 225
2013-09-04 2 24 2 21 14 311
2013-09-05 1 19 0 17 22 207
2013-09-06 3 23 2 21 13 976
2013-09-07 1 51 2 24 20 435
2013-09-08 1 34 0 24 10 968
2013-09-09 0 22 0 18 2 939
2013-09-10 2 30 0 18 3 194
2013-09-11 1 27 1 18 2 264
2013-09-12 2 15 0 17 3 642
2013-09-13 0 12 0 19 3 775
2013-09-14 2 24 0 20 3 850
2013-09-15 0 22 1 19 2 626
2013-09-16 0 19 0 13 7 428
2013-09-17 1 29 2 16 3 178
2013-09-18 3 37 1 20 2 878
2013-09-19 0 26 0 25 3 592
2013-09-20 0 23 0 20 2 807
2013-09-21 1 8 0 18 2 488
2013-09-22 0 15 0 12 1 533
2013-09-23 0 22 1 23 2 729
2013-09-24 0 11 0 25 2 352
2013-09-25 2 32 1 29 3 227
2013-09-26 2 22 0 26 3 451
2013-09-27 1 26 2 19 3 427
2013-09-28 4 11 0 22 2 817
2013-09-29 1 16 0 12 1 720
2013-09-30 0 20 0 22 3 307
Août 2013 20 356 4 30 113 960
Juillet 2013 21 331 2 24 120 164
Juin 2013 40 731 5 34 119 512
2013-06-01 1 13 0 17 3 096
2013-06-02 1 17 0 18 3 028
2013-06-03 1 22 0 16 3 372
2013-06-04 1 19 0 19 3 324
2013-06-05 0 14 0 23 4 819
2013-06-06 0 17 1 19 4 481
2013-06-07 1 13 0 18 4 526
2013-06-08 1 3 0 15 2 042
2013-06-09 2 11 1 15 4 963
2013-06-10 3 33 0 18 4 947
2013-06-11 4 51 0 17 4 344
2013-06-12 2 18 0 16 4 209
2013-06-13 3 41 0 19 3 396
2013-06-14 0 37 0 17 3 142
2013-06-15 1 14 0 15 3 196
2013-06-16 3 39 0 19 3 462
2013-06-17 2 58 1 21 4 811
2013-06-18 0 20 0 18 3 636
2013-06-19 3 40 0 17 3 088
2013-06-20 0 26 0 15 5 656
2013-06-21 0 27 0 19 4 727
2013-06-22 4 27 0 16 3 816
2013-06-23 0 36 0 16 4 764
2013-06-24 1 33 1 34 5 519
2013-06-25 0 21 1 18 3 850
2013-06-26 1 15 0 22 3 883
2013-06-27 2 30 0 21 3 739
2013-06-28 2 18 0 17 4 453
2013-06-29 1 12 0 17 3 440
2013-06-30 0 6 0 21 3 783
Mai 2013 34 881 3 47 157 484
Avril 2013 38 799 8 33 124 279
Mars 2013 40 1 111 9 62 147 762
Février 2013 32 838 5 79 125 299
Janvier 2013 41 898 5 89 138 494
2013-01-01 3 41 0 18 3 294
2013-01-02 0 40 0 32 4 176
2013-01-03 0 19 1 15 3 604
2013-01-04 1 25 1 37 4 312
2013-01-05 3 14 0 15 4 484
2013-01-06 4 45 0 18 3 481
2013-01-07 2 32 0 18 3 613
2013-01-08 2 17 0 22 3 963
2013-01-09 0 19 0 24 3 801
2013-01-10 1 31 0 18 3 318
2013-01-11 0 14 0 17 2 898
2013-01-12 1 23 0 41 3 129
2013-01-13 1 41 0 36 3 414
2013-01-14 1 28 0 41 3 865
2013-01-15 5 56 0 20 4 435
2013-01-16 1 33 0 39 4 394
2013-01-17 1 50 0 38 4 104
2013-01-18 0 17 0 31 4 143
2013-01-19 2 23 0 17 3 723
2013-01-20 2 24 0 22 4 177
2013-01-21 1 31 0 24 5 005
2013-01-22 0 15 1 19 3 874
2013-01-23 0 34 0 16 3 985
2013-01-24 4 34 0 21 4 457
2013-01-25 0 23 0 14 4 216
2013-01-26 0 13 0 63 7 035
2013-01-27 1 23 1 89 8 106
2013-01-28 0 38 0 55 6 946
2013-01-29 0 29 0 52 5 581
2013-01-30 1 30 1 54 6 998
2013-01-31 4 36 0 39 5 963
* 2012 446 10 690 67 157 1 274 957
Décembre 2012 57 1 411 4 45 150 137
Novembre 2012 46 1 137 8 25 112 399
Octobre 2012 45 1 068 7 25 80 970
2012-10-01 4 36 0 16 2 575
2012-10-02 0 19 0 16 2 057
2012-10-03 1 21 0 14 1 771
2012-10-04 1 15 0 25 2 211
2012-10-05 1 6 0 16 1 729
2012-10-06 0 3 0 14 1 339
2012-10-07 1 25 1 13 1 948
2012-10-08 0 43 0 14 3 370
2012-10-09 1 36 0 21 2 924
2012-10-10 2 46 0 17 2 361
2012-10-11 1 54 0 17 3 608
2012-10-12 0 22 0 16 1 810
2012-10-13 3 37 1 14 2 059
2012-10-14 2 57 1 21 2 843
2012-10-15 2 67 0 18 2 859
2012-10-16 0 35 0 17 2 927
2012-10-17 2 68 0 23 3 599
2012-10-18 1 42 1 20 2 644
2012-10-19 1 60 0 15 2 712
2012-10-20 1 18 1 15 2 052
2012-10-21 6 55 1 14 2 785
2012-10-22 2 43 0 16 2 612
2012-10-23 1 35 0 20 2 967
2012-10-24 1 22 0 16 2 174
2012-10-25 0 23 0 14 2 367
2012-10-26 0 25 0 13 2 731
2012-10-27 0 4 0 13 2 966
2012-10-28 3 43 1 19 4 497
2012-10-29 1 31 0 22 3 134
2012-10-30 5 43 0 17 2 931
2012-10-31 2 34 0 20 2 408
Septembre 2012 37 876 11 38 107 023
2012-09-01 0 8 1 16 2 575
2012-09-02 5 43 0 17 3 826
2012-09-03 2 46 0 23 3 659
2012-09-04 1 28 1 17 3 491
2012-09-05 1 45 0 20 3 793
2012-09-06 1 48 0 15 3 882
2012-09-07 0 23 0 17 3 089
2012-09-08 2 35 0 34 3 530
2012-09-09 2 20 1 15 3 371
2012-09-10 4 46 1 27 3 558
2012-09-11 3 41 1 15 3 139
2012-09-12 1 57 0 35 4 503
2012-09-13 0 15 0 38 4 800
2012-09-14 0 18 0 19 3 751
2012-09-15 0 4 0 25 3 135
2012-09-16 2 31 0 21 3 471
2012-09-17 1 51 0 20 3 662
2012-09-18 1 37 2 21 3 924
2012-09-19 0 20 0 22 4 623
2012-09-20 0 24 1 20 4 039
2012-09-21 1 31 1 23 4 071
2012-09-22 0 14 0 23 3 551
2012-09-23 1 14 0 21 3 462
2012-09-24 2 48 1 22 4 769
2012-09-25 4 39 1 23 3 691
2012-09-26 0 22 0 20 3 237
2012-09-27 0 21 0 25 3 229
2012-09-28 0 13 0 16 2 068
2012-09-29 2 16 0 15 1 970
2012-09-30 1 18 0 14 3 154
Août 2012 30 595 5 41 95 032
2012-08-01 1 10 0 13 3 408
2012-08-02 0 21 0 19 2 532
2012-08-03 0 19 0 15 2 650
2012-08-04 0 3 0 14 1 909
2012-08-05 0 5 0 12 1 913
2012-08-06 1 18 1 15 2 288
2012-08-07 0 13 0 15 2 613
2012-08-08 2 12 0 13 3 743
2012-08-09 1 27 0 14 3 247
2012-08-10 0 14 0 41 3 163
2012-08-11 2 20 1 20 2 655
2012-08-12 0 22 0 13 2 610
2012-08-13 2 54 1 18 3 586
2012-08-14 1 22 0 15 3 230
2012-08-15 1 15 0 15 2 618
2012-08-16 3 23 0 14 3 024
2012-08-17 0 7 0 19 3 643
2012-08-18 0 4 0 14 2 628
2012-08-19 3 17 0 16 3 017
2012-08-20 2 20 0 14 3 296
2012-08-21 0 12 1 16 3 643
2012-08-22 2 14 0 18 3 501
2012-08-23 0 26 0 17 3 497
2012-08-24 0 14 0 15 3 563
2012-08-25 0 23 0 16 3 262
2012-08-26 2 15 0 14 3 447
2012-08-27 1 23 0 13 3 342
2012-08-28 1 4 0 17 2 817
2012-08-29 2 22 0 20 3 476
2012-08-30 2 67 1 18 3 756
2012-08-31 1 29 0 29 2 955
Juillet 2012 24 563 2 157 78 638
2012-07-01 2 33 0 20 3 383
2012-07-02 0 39 0 16 3 176
2012-07-03 1 42 0 21 2 769
2012-07-04 0 21 0 18 2 427
2012-07-05 0 28 0 19 2 191
2012-07-06 0 29 0 15 2 402
2012-07-07 2 10 0 25 4 165
2012-07-08 0 13 1 17 1 741
2012-07-09 2 18 0 14 3 585
2012-07-10 2 24 0 14 2 317
2012-07-11 0 39 0 22 3 204
2012-07-12 0 32 0 14 1 963
2012-07-13 1 28 0 16 1 977
2012-07-14 0 17 0 16 1 834
2012-07-15 3 22 0 30 3 446
2012-07-16 1 11 0 26 3 044
2012-07-17 0 5 0 13 1 616
2012-07-18 2 14 0 15 1 754
2012-07-19 0 21 0 13 2 427
2012-07-20 0 15 0 18 1 824
2012-07-21 0 10 0 10 1 292
2012-07-22 0 6 0 18 1 434
2012-07-23 1 7 0 17 1 873
2012-07-24 2 8 0 157 7 112
2012-07-25 2 13 1 13 1 667
2012-07-26 1 6 0 14 1 478
2012-07-27 1 14 0 16 2 610
2012-07-28 0 6 0 17 2 026
2012-07-29 0 11 0 16 2 266
2012-07-30 1 11 0 15 2 745
2012-07-31 0 10 0 17 2 890
Juin 2012 39 984 10 33 88 620
Mai 2012 22 703 5 26 77 701
2012-05-01 2 31 0 24 2 676
2012-05-02 2 37 0 16 2 377
2012-05-03 1 28 0 17 2 595
2012-05-04 0 32 0 17 2 833
2012-05-05 2 29 1 21 2 604
2012-05-06 0 26 0 19 3 019
2012-05-07 1 23 0 15 2 984
2012-05-08 1 21 0 15 2 018
2012-05-09 0 22 0 15 1 937
2012-05-10 3 29 1 26 2 194
2012-05-11 1 18 0 17 2 614
2012-05-12 0 25 0 18 2 467
2012-05-13 1 21 0 15 1 929
2012-05-14 0 19 0 15 2 270
2012-05-15 0 20 0 13 2 021
2012-05-16 2 19 1 20 1 978
2012-05-17 0 28 0 17 2 478
2012-05-18 1 11 0 13 2 280
2012-05-19 0 14 0 17 2 552
2012-05-20 0 12 0 20 2 256
2012-05-21 0 14 0 20 3 771
2012-05-22 1 14 0 17 1 888
2012-05-23 2 32 1 14 2 221
2012-05-24 0 39 1 16 2 279
2012-05-25 0 20 0 13 2 197
2012-05-26 0 11 0 12 2 044
2012-05-27 0 17 0 16 2 881
2012-05-28 0 19 0 13 2 192
2012-05-29 2 26 0 19 2 789
2012-05-30 0 14 0 19 4 625
2012-05-31 0 32 0 17 2 732
Avril 2012 33 714 4 33 95 151
Mars 2012 35 977 5 48 160 160
Février 2012 34 704 5 33 117 877
Janvier 2012 44 958 1 30 111 249
2012-01-01 3 33 0 15 2 419
2012-01-02 3 54 0 22 4 785
2012-01-03 2 41 1 24 4 216
2012-01-04 0 23 0 20 4 356
2012-01-05 3 33 0 23 4 494
2012-01-06 3 53 0 30 4 247
2012-01-07 0 24 0 20 3 112
2012-01-08 3 21 0 19 3 575
2012-01-09 3 40 0 24 5 659
2012-01-10 2 39 0 24 2 961
2012-01-11 3 38 0 20 4 809
2012-01-12 0 9 0 24 3 309
2012-01-13 1 33 0 22 5 053
2012-01-14 1 20 0 18 2 639
2012-01-15 3 42 0 22 2 705
2012-01-16 2 59 0 26 4 036
2012-01-17 2 34 0 20 4 879
2012-01-18 1 23 0 19 2 689
2012-01-19 1 25 0 23 3 208
2012-01-20 1 37 0 21 4 457
2012-01-21 0 12 0 20 2 455
2012-01-22 1 33 0 22 5 353
2012-01-23 1 33 0 19 2 704
2012-01-24 1 34 0 23 5 671
2012-01-25 1 23 0 22 2 765
2012-01-26 0 17 0 15 2 256
2012-01-27 1 21 0 15 2 639
2012-01-28 0 37 0 14 2 277
2012-01-29 0 9 0 19 2 598
2012-01-30 1 19 0 18 2 202
2012-01-31 1 39 0 17 2 721
* 2011 822 21 877 118 48 1 861 895
Décembre 2011 68 1 315 7 36 141 929
Novembre 2011 94 1 539 4 36 150 015
Octobre 2011 81 1 597 13 41 169 207
Septembre 2011 96 1 991 19 24 158 540
2011-09-01 1 105 0 18 4 820
2011-09-02 0 44 0 17 3 692
2011-09-03 0 35 0 16 3 065
2011-09-04 1 39 1 18 3 341
2011-09-05 4 67 1 21 3 815
2011-09-06 0 37 0 12 5 171
2011-09-07 2 64 2 17 7 762
2011-09-08 2 83 0 23 7 440
2011-09-09 0 103 0 20 8 363
2011-09-10 0 27 0 15 6 046
2011-09-11 11 96 0 24 5 135
2011-09-12 6 137 1 18 5 300
2011-09-13 18 102 0 19 6 004
2011-09-14 5 57 0 22 4 369
2011-09-15 2 43 0 15 3 469
2011-09-16 3 88 0 18 5 547
2011-09-17 1 43 2 19 4 640
2011-09-18 4 42 2 21 5 991
2011-09-19 2 80 0 18 5 773
2011-09-20 4 66 1 22 6 364
2011-09-21 8 83 0 21 5 960
2011-09-22 1 47 2 20 4 972
2011-09-23 2 43 0 18 4 346
2011-09-24 2 44 0 23 3 841
2011-09-25 2 62 3 20 4 963
2011-09-26 1 65 0 19 4 935
2011-09-27 6 66 3 19 4 561
2011-09-28 3 108 1 21 5 839
2011-09-29 5 77 0 18 7 139
2011-09-30 0 38 0 15 5 877
Août 2011 68 1 372 16 48 135 201
2011-08-01 1 53 3 16 3 486
2011-08-02 2 33 2 18 3 048
2011-08-03 0 24 0 18 2 915
2011-08-04 3 25 0 16 2 649
2011-08-05 2 35 0 20 3 005
2011-08-06 0 17 0 15 2 618
2011-08-07 2 23 0 12 3 445
2011-08-08 2 63 0 15 3 465
2011-08-09 1 29 0 21 2 868
2011-08-10 1 35 0 22 2 729
2011-08-11 2 42 0 17 2 980
2011-08-12 1 57 0 21 3 655
2011-08-13 1 15 0 12 1 914
2011-08-14 3 11 0 16 2 022
2011-08-15 3 26 0 18 3 670
2011-08-16 2 32 0 11 9 114
2011-08-17 6 40 0 18 8 629
2011-08-18 4 50 0 29 6 811
2011-08-19 1 27 0 14 4 955
2011-08-20 0 16 0 13 2 768
2011-08-21 1 20 2 16 2 731
2011-08-22 2 76 1 15 4 951
2011-08-23 1 73 1 20 7 172
2011-08-24 1 36 1 23 5 952
2011-08-25 6 106 1 16 7 246
2011-08-26 5 112 2 23 8 570
2011-08-27 2 52 0 19 5 138
2011-08-28 4 46 1 13 3 457
2011-08-29 3 83 0 18 4 851
2011-08-30 1 48 1 18 4 507
2011-08-31 5 67 1 48 3 880
Juillet 2011 57 1 156 10 30 112 626
2011-07-01 2 18 0 21 5 455
2011-07-02 5 34 1 13 3 807
2011-07-03 0 47 1 29 3 624
2011-07-04 3 75 1 23 5 753
2011-07-05 1 54 1 17 5 269
2011-07-06 1 25 0 17 4 105
2011-07-07 0 25 0 30 3 217
2011-07-08 3 74 0 17 4 521
2011-07-09 8 29 1 18 2 897
2011-07-10 1 54 0 21 5 965
2011-07-11 3 38 2 18 4 473
2011-07-12 2 66 0 14 3 417
2011-07-13 5 73 0 19 3 850
2011-07-14 0 38 0 15 3 112
2011-07-15 0 29 0 17 2 768
2011-07-16 1 17 0 21 4 404
2011-07-17 0 18 0 15 4 901
2011-07-18 1 25 0 18 2 740
2011-07-19 1 15 0 14 2 640
2011-07-20 1 48 0 20 3 211
2011-07-21 2 24 1 15 2 768
2011-07-22 2 46 0 17 3 321
2011-07-23 1 24 1 12 2 352
2011-07-24 8 31 0 15 2 544
2011-07-25 3 56 0 19 3 247
2011-07-26 1 31 1 12 3 398
2011-07-27 1 35 0 19 3 127
2011-07-28 0 28 0 24 3 297
2011-07-29 0 28 0 16 2 641
2011-07-30 0 12 0 17 2 551
2011-07-31 1 39 0 17 3 251
Juin 2011 40 1 214 6 31 149 115
Mai 2011 64 1 997 8 39 181 997
2011-05-01 1 44 0 21 3 800
2011-05-02 2 97 0 21 4 247
2011-05-03 2 60 0 15 3 949
2011-05-04 2 57 0 22 4 174
2011-05-05 2 87 0 29 4 101
2011-05-06 1 46 0 19 3 293
2011-05-07 3 21 0 31 5 860
2011-05-08 1 13 1 29 6 061
2011-05-09 2 62 1 26 7 057
2011-05-10 3 117 1 32 13 635
2011-05-11 0 70 0 33 8 213
2011-05-12 4 99 0 39 6 910
2011-05-13 3 60 0 27 5 773
2011-05-14 3 45 1 23 4 456
2011-05-15 1 55 0 26 5 530
2011-05-16 1 73 0 34 6 924
2011-05-17 0 96 0 25 5 617
2011-05-18 4 144 0 29 7 640
2011-05-19 2 91 0 34 8 906
2011-05-20 1 45 0 28 5 778
2011-05-21 0 21 0 38 5 753
2011-05-22 1 55 0 29 6 481
2011-05-23 7 130 0 23 10 799
2011-05-24 1 41 0 28 4 569
2011-05-25 3 51 0 34 6 528
2011-05-26 0 71 2 24 4 490
2011-05-27 1 49 1 18 3 249
2011-05-28 0 36 0 14 2 868
2011-05-29 7 31 0 23 4 945
2011-05-30 3 76 0 28 5 514
2011-05-31 3 54 1 25 4 877
Avril 2011 46 1 637 9 38 176 986
Mars 2011 54 2 388 6 31 211 307
2011-03-01 3 122 0 18 6 680
2011-03-02 2 125 0 22 7 771
2011-03-03 2 101 0 20 6 758
2011-03-04 1 42 0 17 4 167
2011-03-05 3 23 0 20 4 811
2011-03-06 1 22 0 18 6 699
2011-03-07 1 42 1 17 6 565
2011-03-08 1 37 0 15 7 116
2011-03-09 1 39 0 16 10 831
2011-03-10 3 77 0 15 19 804
2011-03-11 2 61 0 19 12 773
2011-03-12 4 51 1 16 5 555
2011-03-13 4 68 0 15 5 274
2011-03-14 2 115 0 16 5 003
2011-03-15 1 92 0 17 6 428
2011-03-16 3 212 1 21 9 712
2011-03-17 0 120 1 19 5 516
2011-03-18 0 109 0 19 3 950
2011-03-19 1 32 0 16 3 488
2011-03-20 0 56 0 20 3 576
2011-03-21 1 81 0 15 6 916
2011-03-22 1 58 0 30 6 314
2011-03-23 2 95 0 19 8 455
2011-03-24 3 147 0 19 6 592
2011-03-25 0 66 0 22 9 114
2011-03-26 1 15 0 21 4 424
2011-03-27 0 24 0 31 4 299
2011-03-28 3 77 0 28 5 137
2011-03-29 3 92 1 26 4 709
2011-03-30 4 104 1 25 5 221
2011-03-31 1 83 0 28 7 649
Février 2011 59 2 656 5 46 128 248
Janvier 2011 95 3 015 15 44 146 724
* 2010 615 23 079 70 91 1 409 620
Décembre 2010 54 2 635 5 43 199 984
Novembre 2010 59 2 475 6 49 127 779
Octobre 2010 56 2 811 15 58 134 942
2010-10-01 1 27 0 18 2 575
2010-10-02 0 7 0 14 2 199
2010-10-03 2 20 1 13 2 150
2010-10-04 3 117 0 25 4 970
2010-10-05 4 100 2 23 4 774
2010-10-06 4 161 2 17 4 633
2010-10-07 3 125 0 23 4 574
2010-10-08 3 149 0 22 4 322
2010-10-09 1 41 0 10 2 439
2010-10-10 0 73 0 19 3 425
2010-10-11 1 71 0 17 3 794
2010-10-12 4 99 0 20 4 927
2010-10-13 3 122 0 31 4 968
2010-10-14 2 103 0 35 4 902
2010-10-15 1 135 0 35 4 851
2010-10-16 2 49 0 30 3 550
2010-10-17 1 89 2 45 4 610
2010-10-18 2 133 3 45 5 301
2010-10-19 2 99 0 30 4 707
2010-10-20 2 110 2 47 4 597
2010-10-21 1 121 0 41 5 105
2010-10-22 0 77 0 41 4 177
2010-10-23 0 59 0 28 3 880
2010-10-24 3 75 0 33 4 059
2010-10-25 1 114 0 58 5 595
2010-10-26 0 91 0 37 5 246
2010-10-27 3 121 1 41 5 815
2010-10-28 1 115 0 33 5 457
2010-10-29 2 72 0 36 4 402
2010-10-30 2 53 1 37 4 041
2010-10-31 2 83 1 45 4 897
Septembre 2010 53 1 528 8 29 95 249
2010-09-01 2 64 1 15 3 537
2010-09-02 2 76 0 14 3 989
2010-09-03 3 85 0 19 3 885
2010-09-04 1 38 0 20 3 616
2010-09-05 1 48 0 26 5 204
2010-09-06 1 76 0 24 4 914
2010-09-07 0 30 0 17 2 733
2010-09-08 4 80 1 15 3 386
2010-09-09 7 72 0 17 2 897
2010-09-10 1 40 0 21 3 001
2010-09-11 1 30 1 19 2 447
2010-09-12 1 38 0 14 2 426
2010-09-13 1 35 1 17 3 257
2010-09-14 2 49 0 15 2 984
2010-09-15 1 33 0 19 2 355
2010-09-16 0 16 0 15 2 237
2010-09-17 2 27 0 14 2 374
2010-09-18 0 12 0 11 2 345
2010-09-19 1 18 0 17 2 430
2010-09-20 6 97 0 20 3 524
2010-09-21 4 72 2 19 3 395
2010-09-22 3 66 0 29 3 745
2010-09-23 1 45 0 17 3 086
2010-09-24 0 27 0 11 2 457
2010-09-25 3 45 0 17 2 727
2010-09-26 1 68 0 22 3 215
2010-09-27 0 62 1 15 2 961
2010-09-28 3 71 0 17 3 530
2010-09-29 1 56 1 21 4 026
2010-09-30 0 52 0 12 2 566
Août 2010 32 1 287 6 33 89 617
2010-08-01 2 44 0 14 2 375
2010-08-02 1 72 0 19 3 526
2010-08-03 2 81 0 33 3 516
2010-08-04 0 87 0 21 2 742
2010-08-05 0 80 0 17 3 348
2010-08-06 2 149 0 20 3 946
2010-08-07 1 29 1 17 2 159
2010-08-08 1 27 0 16 2 369
2010-08-09 3 52 0 20 2 680
2010-08-10 0 52 0 15 3 070
2010-08-11 2 38 0 21 4 295
2010-08-12 1 36 0 18 2 513
2010-08-13 0 15 0 15 2 131
2010-08-14 0 10 1 8 6 123
2010-08-15 0 5 1 10 2 220
2010-08-16 2 21 0 12 2 503
2010-08-17 0 12 0 13 2 212
2010-08-18 0 17 0 12 2 490
2010-08-19 0 24 0 11 2 741
2010-08-20 2 30 0 22 3 123
2010-08-21 1 20 0 13 2 077
2010-08-22 2 35 0 12 1 743
2010-08-23 3 43 0 16 2 815
2010-08-24 1 41 0 17 3 088
2010-08-25 0 47 0 14 2 711
2010-08-26 1 61 0 16 2 920
2010-08-27 2 37 0 15 3 274
2010-08-28 0 20 0 9 1 779
2010-08-29 0 16 1 14 2 423
2010-08-30 1 32 0 17 3 130
2010-08-31 2 54 2 15 3 575
Juillet 2010 34 1 637 5 32 97 290
2010-07-01 1 30 0 21 3 321
2010-07-02 1 52 1 16 3 049
2010-07-03 1 37 0 16 2 560
2010-07-04 0 16 0 13 2 269
2010-07-05 4 85 0 26 4 056
2010-07-06 0 91 0 21 4 081
2010-07-07 1 121 1 21 4 639
2010-07-08 1 73 0 24 3 929
2010-07-09 1 79 0 24 3 726
2010-07-10 0 27 0 17 2 693
2010-07-11 1 29 0 17 2 442
2010-07-12 0 62 0 32 4 813
2010-07-13 2 51 0 17 2 918
2010-07-14 1 36 0 21 3 013
2010-07-15 0 52 0 19 3 510
2010-07-16 1 70 0 16 3 362
2010-07-17 1 24 0 13 2 507
2010-07-18 4 28 0 14 2 203
2010-07-19 2 62 0 17 3 256
2010-07-20 0 28 0 22 2 386
2010-07-21 0 42 0 21 2 918
2010-07-22 3 41 2 28 2 834
2010-07-23 1 66 0 16 3 158
2010-07-24 0 49 1 24 2 730
2010-07-25 0 44 0 20 2 856
2010-07-26 1 74 0 20 3 201
2010-07-27 0 44 0 18 3 066
2010-07-28 6 60 0 24 2 949
2010-07-29 0 55 0 19 2 833
2010-07-30 0 72 0 22 3 484
2010-07-31 1 37 0 20 2 528
Juin 2010 46 2 137 3 28 109 648
Mai 2010 50 1 497 6 28 99 050
2010-05-01 1 32 0 21 2 421
2010-05-02 3 74 0 19 3 038
2010-05-03 8 104 1 18 3 744
2010-05-04 2 85 3 21 4 178
2010-05-05 0 40 0 17 3 300
2010-05-06 1 42 0 23 2 824
2010-05-07 0 73 0 18 3 255
2010-05-08 1 44 0 15 3 488
2010-05-09 1 41 0 15 3 389
2010-05-10 1 68 0 19 3 933
2010-05-11 1 48 0 22 5 245
2010-05-12 0 29 0 26 3 746
2010-05-13 0 7 0 18 2 614
2010-05-14 2 27 0 20 2 765
2010-05-15 0 19 0 19 2 419
2010-05-16 2 18 0 16 2 298
2010-05-17 0 57 1 15 3 088
2010-05-18 3 32 0 19 2 709
2010-05-19 1 31 0 19 2 946
2010-05-20 1 29 0 25 2 781
2010-05-21 3 39 0 18 2 646
2010-05-22 0 19 0 21 2 436
2010-05-23 2 20 0 20 2 475
2010-05-24 1 27 0 19 2 780
2010-05-25 5 104 0 19 4 022
2010-05-26 3 91 0 18 3 752
2010-05-27 1 50 0 17 3 010
2010-05-28 2 50 0 28 3 237
2010-05-29 1 43 0 20 3 063
2010-05-30 2 50 1 18 2 987
2010-05-31 2 104 0 25 4 461
Avril 2010 45 1 888 3 26 102 219
Mars 2010 53 1 534 2 46 118 201
Février 2010 65 1 574 4 91 117 274
Janvier 2010 68 2 076 7 43 118 367
* 2009 752 28 223 96 159 970 278
Décembre 2009 39 2 001 5 54 122 418
Novembre 2009 59 3 138 6 38 117 432
Octobre 2009 67 3 218 11 18 122 232
Septembre 2009 73 2 730 14 159 92 082
Août 2009 47 1 405 8 15 61 919
2009-08-01 2 39 0 13 1 336
2009-08-02 0 69 0 11 2 391
2009-08-03 1 44 0 11 1 874
2009-08-04 3 65 0 11 2 245
2009-08-05 2 48 0 10 1 649
2009-08-06 0 16 0 11 1 298
2009-08-07 0 47 1 8 1 823
2009-08-08 3 37 1 9 1 618
2009-08-09 0 29 0 7 1 656
2009-08-10 1 38 0 10 1 645
2009-08-11 0 24 0 9 1 552
2009-08-12 1 31 0 10 1 570
2009-08-13 0 11 0 10 1 503
2009-08-14 1 28 1 14 1 375
2009-08-15 1 28 0 8 1 978
2009-08-16 1 18 0 8 1 403
2009-08-17 2 52 0 11 2 044
2009-08-18 1 25 0 8 1 776
2009-08-19 0 29 0 15 3 027
2009-08-20 1 26 0 9 2 534
2009-08-21 1 30 0 10 1 626
2009-08-22 0 30 0 8 1 511
2009-08-23 3 54 0 10 2 054
2009-08-24 1 58 0 9 2 545
2009-08-25 0 37 0 15 1 903
2009-08-26 4 41 1 10 1 582
2009-08-27 4 160 2 10 3 765
2009-08-28 5 90 2 10 2 501
2009-08-29 1 72 0 14 2 703
2009-08-30 2 43 0 10 2 157
2009-08-31 6 86 0 12 3 275
Juillet 2009 68 1 737 11 21 67 267
Juin 2009 63 2 759 4 37 72 789
Mai 2009 46 2 166 6 16 66 386
Avril 2009 101 2 850 6 16 73 303
Mars 2009 80 3 538 7 17 83 610
Février 2009 57 1 586 6 16 50 521
2009-02-01 3 79 0 10 1 938
2009-02-02 2 66 0 11 2 491
2009-02-03 2 62 1 13 2 112
2009-02-04 2 48 0 12 1 911
2009-02-05 1 54 0 10 1 840
2009-02-06 0 42 1 9 1 456
2009-02-07 1 13 0 6 1 032
2009-02-08 5 69 1 9 1 650
2009-02-09 3 48 0 10 1 590
2009-02-10 2 56 0 8 1 453
2009-02-11 1 38 1 9 1 697
2009-02-12 2 30 0 8 1 354
2009-02-13 3 52 1 12 1 429
2009-02-14 1 29 0 11 988
2009-02-15 2 41 0 8 1 595
2009-02-16 2 62 0 10 2 271
2009-02-17 1 44 0 10 1 926
2009-02-18 1 62 0 10 2 139
2009-02-19 5 89 0 12 2 304
2009-02-20 1 66 0 12 2 066
2009-02-21 0 41 0 9 1 177
2009-02-22 6 58 0 11 1 838
2009-02-23 2 67 0 10 1 907
2009-02-24 1 64 0 12 2 219
2009-02-25 1 85 0 16 2 446
2009-02-26 2 76 0 12 2 117
2009-02-27 1 82 0 11 2 035
2009-02-28 4 63 1 10 1 540
Janvier 2009 52 1 095 12 10 40 319
* 2008 334 4 655 56 26 234 055
Décembre 2008 36 663 7 12 28 104
2008-12-01 3 30 0 10 1 312
2008-12-02 0 30 0 7 1 279
2008-12-03 3 41 0 12 1 017
2008-12-04 2 33 0 7 1 133
2008-12-05 2 40 1 7 1 117
2008-12-06 0 7 0 5 831
2008-12-07 1 21 0 5 1 053
2008-12-08 1 30 0 8 1 116
2008-12-09 2 39 0 8 1 045
2008-12-10 0 13 0 6 555
2008-12-11 1 29 2 8 1 021
2008-12-12 0 29 1 9 1 230
2008-12-13 2 32 0 11 1 196
2008-12-14 3 17 1 8 973
2008-12-15 1 21 0 9 868
2008-12-16 3 51 1 9 1 403
2008-12-17 0 19 1 7 950
2008-12-18 1 7 0 10 889
2008-12-19 0 26 0 8 1 051
2008-12-20 2 19 0 8 964
2008-12-21 2 20 0 5 722
2008-12-22 0 10 0 5 689
2008-12-23 0 22 0 8 909
2008-12-24 0 8 0 4 427
2008-12-25 0 11 0 5 344
2008-12-26 2 17 0 6 566
2008-12-27 0 2 0 5 628
2008-12-28 1 8 0 5 684
2008-12-29 1 9 0 5 880
2008-12-30 1 8 0 5 575
2008-12-31 2 14 0 6 677
Novembre 2008 51 1 090 9 10 35 948
Octobre 2008 50 609 5 10 26 582
2008-10-01 4 74 0 10 1 718
2008-10-02 0 20 1 7 955
2008-10-03 3 35 0 7 1 660
2008-10-04 0 8 0 5 1 228
2008-10-05 3 31 0 7 1 306
2008-10-06 4 28 0 8 771
2008-10-07 0 12 0 9 791
2008-10-08 0 2 0 5 459
2008-10-09 1 13 0 7 501
2008-10-10 1 14 1 7 785
2008-10-11 1 7 0 5 486
2008-10-12 2 19 0 7 758
2008-10-13 4 29 0 6 852
2008-10-14 1 12 0 6 550
2008-10-15 2 15 0 7 607
2008-10-16 0 14 0 4 475
2008-10-17 1 18 1 6 748
2008-10-18 1 22 0 7 727
2008-10-19 4 26 1 7 1 372
2008-10-20 1 13 0 10 751
2008-10-21 0 16 0 5 751
2008-10-22 1 10 0 4 431
2008-10-23 3 24 0 7 840
2008-10-24 0 20 0 5 732
2008-10-25 1 6 0 6 746
2008-10-26 3 19 0 6 777
2008-10-27 5 26 0 8 792
2008-10-28 3 29 1 8 1 405
2008-10-29 1 17 0 6 1 065
2008-10-30 0 12 0 5 819
2008-10-31 0 18 0 7 724
Septembre 2008 40 619 5 10 24 365
Août 2008 28 252 6 9 21 916
2008-08-01 1 3 0 6 643
2008-08-02 1 7 1 4 575
2008-08-03 0 1 0 3 335
2008-08-04 1 9 0 8 348
2008-08-05 0 1 0 2 341
2008-08-06 1 6 0 5 362
2008-08-07 2 10 0 5 392
2008-08-08 0 5 0 3 492
2008-08-09 0 9 0 4 352
2008-08-10 0 5 0 4 379
2008-08-11 3 9 1 5 574
2008-08-12 1 10 0 9 785
2008-08-13 0 5 0 3 614
2008-08-14 0 6 0 3 300
2008-08-15 0 7 0 7 1 149
2008-08-16 0 5 0 5 2 200
2008-08-17 1 2 1 3 676
2008-08-18 2 12 0 6 505
2008-08-19 1 10 0 6 559
2008-08-20 0 16 0 4 441
2008-08-21 0 7 1 5 515
2008-08-22 6 27 0 6 789
2008-08-23 1 4 0 7 566
2008-08-24 1 3 0 5 765
2008-08-25 1 14 0 6 707
2008-08-26 0 7 0 8 778
2008-08-27 3 14 1 5 847
2008-08-28 0 6 0 5 701
2008-08-29 0 10 0 8 1 349
2008-08-30 0 2 0 5 1 714
2008-08-31 2 20 1 9 1 163
Juillet 2008 20 256 5 7 16 733
Juin 2008 17 363 6 26 18 903
2008-06-01 1 5 0 4 292
2008-06-02 0 5 0 0 275
2008-06-03 1 18 0 0 394
2008-06-04 1 12 0 5 364
2008-06-05 0 20 0 5 515
2008-06-06 0 9 0 5 345
2008-06-07 1 9 0 3 329
2008-06-08 0 6 0 4 483
2008-06-09 0 6 0 4 293
2008-06-10 1 4 0 26 378
2008-06-11 1 5 0 3 352
2008-06-12 0 3 0 3 313
2008-06-13 0 2 0 0 459
2008-06-14 3 6 2 5 745
2008-06-15 0 5 0 4 1 117
2008-06-16 0 26 0 6 920
2008-06-17 1 24 1 6 870
2008-06-18 1 36 0 6 1 390
2008-06-19 0 33 0 6 1 026
2008-06-20 1 31 1 6 1 005
2008-06-21 0 19 0 5 1 268
2008-06-22 0 3 0 3 453
2008-06-23 0 1 0 6 520
2008-06-24 0 7 0 5 332
2008-06-25 3 25 1 8 752
2008-06-26 1 22 0 5 752
2008-06-27 0 8 0 5 928
2008-06-28 0 4 1 4 1 001
2008-06-29 1 4 0 8 610
2008-06-30 0 5 0 5 422
Mai 2008 17 180 2 10 13 320
Avril 2008 16 146 3 8 16 063
2008-04-01 1 11 0 4 553
2008-04-02 0 4 0 7 503
2008-04-03 2 14 1 4 1 518
2008-04-04 0 6 0 0 1 184
2008-04-05 0 2 0 3 955
2008-04-06 1 4 0 4 680
2008-04-07 1 6 0 4 582
2008-04-08 0 6 0 4 448
2008-04-09 0 1 0 3 419
2008-04-10 1 1 0 5 432
2008-04-11 0 1 0 3 780
2008-04-12 0 4 0 5 909
2008-04-13 0 4 0 3 540
2008-04-14 0 3 1 0 516
2008-04-15 0 1 0 0 343
2008-04-16 0 3 0 0 602
2008-04-17 0 0 0 8 283
2008-04-18 0 1 0 0 415
2008-04-19 0 1 1 4 429
2008-04-20 2 3 0 4 410
2008-04-21 3 15 0 4 521
2008-04-22 0 14 0 6 672
2008-04-23 1 12 0 4 399
2008-04-24 0 3 0 4 350
2008-04-25 0 2 0 4 190
2008-04-26 2 4 0 5 229
2008-04-27 0 2 0 4 308
2008-04-28 0 1 0 4 265
2008-04-29 0 4 0 4 250
2008-04-30 2 13 0 5 378
Mars 2008 18 158 1 9 12 835
Février 2008 19 155 2 9 9 679
Janvier 2008 22 164 5 7 9 607
2008-01-01 0 0 0 3 156
2008-01-02 1 6 0 3 272
2008-01-03 0 4 1 5 375
2008-01-04 0 10 0 5 389
2008-01-05 0 3 1 0 262
2008-01-06 0 3 0 7 269
2008-01-07 1 4 1 0 273
2008-01-08 1 5 0 4 363
2008-01-09 1 6 0 4 353
2008-01-10 2 18 0 4 470
2008-01-11 0 2 0 5 307
2008-01-12 0 0 0 2 173
2008-01-13 0 8 0 3 213
2008-01-14 0 5 0 6 311
2008-01-15 0 4 0 4 276
2008-01-16 0 3 0 4 283
2008-01-17 1 4 0 5 318
2008-01-18 0 7 0 5 340
2008-01-19 1 4 0 5 253
2008-01-20 0 2 1 4 270
2008-01-21 0 4 0 5 319
2008-01-22 2 2 0 0 196
2008-01-23 1 3 0 3 205
2008-01-24 0 6 0 4 222
2008-01-25 0 4 0 4 317
2008-01-26 0 2 0 4 258
2008-01-27 2 4 0 5 300
2008-01-28 4 13 1 5 640
2008-01-29 2 13 0 5 449
2008-01-30 2 9 0 0 384
2008-01-31 1 6 0 4 391
* 2007 276 2 246 55 9 102 999
Décembre 2007 21 167 5 8 17 081
2007-12-01 0 1 0 4 239
2007-12-02 0 2 0 4 264
2007-12-03 1 5 0 4 262
2007-12-04 0 1 0 4 266
2007-12-05 0 0 0 3 201
2007-12-06 0 2 0 4 226
2007-12-07 0 12 0 0 371
2007-12-08 1 3 0 4 451
2007-12-09 2 8 0 4 2 230
2007-12-10 2 13 1 5 405
2007-12-11 0 5 1 4 312
2007-12-12 1 10 0 4 317
2007-12-13 0 2 0 0 258
2007-12-14 1 7 0 4 254
2007-12-15 2 6 0 3 303
2007-12-16 0 4 0 3 248
2007-12-17 1 6 0 4 267
2007-12-18 0 1 0 0 233
2007-12-19 2 7 0 3 285
2007-12-20 0 4 1 0 262
2007-12-21 0 3 1 8 313
2007-12-22 4 12 0 5 568
2007-12-23 0 10 0 4 406
2007-12-24 1 7 1 3 4 210
2007-12-25 1 9 0 3 296
2007-12-26 0 11 0 5 383
2007-12-27 0 5 0 4 331
2007-12-28 1 6 0 0 326
2007-12-29 1 1 0 0 221
2007-12-30 0 1 0 2 2 196
2007-12-31 0 3 0 2 177
Novembre 2007 20 168 3 6 8 467
Octobre 2007 21 147 4 5 8 193
Septembre 2007 22 183 4 9 9 896
2007-09-01 1 6 0 4 255
2007-09-02 1 7 1 3 302
2007-09-03 2 13 0 5 572
2007-09-04 1 15 1 9 508
2007-09-05 1 4 1 7 396
2007-09-06 1 23 0 6 618
2007-09-07 1 9 1 0 426
2007-09-08 0 5 0 4 308
2007-09-09 0 2 0 5 280
2007-09-10 1 8 0 0 334
2007-09-11 5 17 0 6 584
2007-09-12 0 3 0 7 335
2007-09-13 0 2 0 8 430
2007-09-14 0 3 0 3 253
2007-09-15 0 1 0 2 169
2007-09-16 0 0 0 3 139
2007-09-17 0 3 0 4 258
2007-09-18 0 1 0 5 289
2007-09-19 1 8 0 4 366
2007-09-20 1 4 0 3 258
2007-09-21 1 5 0 3 285
2007-09-22 0 5 0 7 259
2007-09-23 1 2 0 3 272
2007-09-24 0 8 0 4 304
2007-09-25 1 3 0 3 367
2007-09-26 1 5 0 4 246
2007-09-27 0 2 0 4 261
2007-09-28 0 4 0 4 291
2007-09-29 2 11 0 4 373
2007-09-30 0 4 0 0 158
Août 2007 23 226 2 6 9 096
2007-08-01 1 11 0 0 281
2007-08-02 0 4 0 4 224
2007-08-03 2 13 1 0 357
2007-08-04 0 5 0 3 265
2007-08-05 0 0 0 1 129
2007-08-06 1 1 0 2 171
2007-08-07 1 2 0 0 211
2007-08-08 0 0 0 2 132
2007-08-09 1 3 0 2 133
2007-08-10 0 1 0 2 177
2007-08-11 0 0 0 2 104
2007-08-12 0 0 0 3 97
2007-08-13 0 3 0 3 220
2007-08-14 0 0 0 3 199
2007-08-15 0 0 0 0 163
2007-08-16 1 4 0 2 166
2007-08-17 0 6 0 5 274
2007-08-18 0 3 1 3 274
2007-08-19 1 4 0 3 258
2007-08-20 1 14 0 4 417
2007-08-21 2 9 0 3 352
2007-08-22 1 18 0 3 434
2007-08-23 1 12 0 4 412
2007-08-24 0 7 0 6 267
2007-08-25 0 7 0 5 265
2007-08-26 2 11 0 4 363
2007-08-27 1 27 0 6 720
2007-08-28 1 17 0 0 580
2007-08-29 2 9 0 0 492
2007-08-30 3 27 0 5 648
2007-08-31 1 8 0 5 311
Juillet 2007 18 127 1 4 10 165
Juin 2007 25 309 2 6 13 196
2007-06-01 0 30 0 5 730
2007-06-02 1 3 0 5 231
2007-06-03 0 4 0 4 155
2007-06-04 2 22 0 5 514
2007-06-05 0 19 0 0 547
2007-06-06 1 7 0 5 383
2007-06-07 0 8 1 0 407
2007-06-08 0 6 0 6 413
2007-06-09 2 10 0 3 371
2007-06-10 0 4 1 3 247
2007-06-11 1 6 0 4 306
2007-06-12 2 11 0 3 298
2007-06-13 5 20 0 6 533
2007-06-14 0 11 0 4 388
2007-06-15 2 22 0 0 499
2007-06-16 1 3 0 4 249
2007-06-17 0 2 0 3 349
2007-06-18 0 9 0 5 414
2007-06-19 0 5 0 0 344
2007-06-20 0 10 0 0 450
2007-06-21 2 11 0 4 450
2007-06-22 0 3 0 0 439
2007-06-23 0 6 0 4 447
2007-06-24 2 5 0 3 351
2007-06-25 0 3 0 4 532
2007-06-26 2 16 0 3 751
2007-06-27 0 15 0 4 611
2007-06-28 1 7 0 0 557
2007-06-29 0 21 0 5 717
2007-06-30 1 10 0 0 513
Mai 2007 30 315 8 7 11 830
Avril 2007 44 428 13 9 13 382
Mars 2007 52 176 13 4 1 693